<?xml version="1.0" encoding="UTF-8" standalone="no" ?>
<gpx xmlns="http://www.topografix.com/GPX/1/1" xmlns:xsi="http://www.w3.org/2001/XMLSchema-instance" xsi:schemaLocation="http://www.topografix.com/GPX/1/1 http://www.topografix.com/GPX/1/1/gpx.xsd" version="1.1" creator="VisuGPX - https://www.visugpx.com">
  <metadata>
    <name>Randonnée du 08/04/2026</name>
    <desc><![CDATA[Départ centre équestre le buisson]]></desc>
  </metadata>
  <wpt lat="45.27362" lon="4.28976">
    <ele>789</ele>
    <name><![CDATA[Point de passage 1]]></name>
    <type><![CDATA[GENERIC]]></type>
  </wpt>
  <wpt lat="45.26804" lon="4.31056">
    <ele>847</ele>
    <name><![CDATA[Point de passage 2]]></name>
    <type><![CDATA[GENERIC]]></type>
  </wpt>
  <trk>
    <name><![CDATA[Randonnée du 07/04/2026 à 12:35]]></name>
    <trkseg>
      <trkpt lat="45.27362" lon="4.28976">
        <ele>789</ele>
        <time>2026-04-07T10:36:12.000Z</time>
      </trkpt>
      <trkpt lat="45.27356" lon="4.28987">
        <ele>789</ele>
        <time>2026-04-07T10:38:48.000Z</time>
      </trkpt>
      <trkpt lat="45.27355" lon="4.28993">
        <ele>789</ele>
        <time>2026-04-07T10:38:48.000Z</time>
      </trkpt>
      <trkpt lat="45.27363" lon="4.29009">
        <ele>789</ele>
        <time>2026-04-07T10:38:48.000Z</time>
      </trkpt>
      <trkpt lat="45.27346" lon="4.29024">
        <ele>790</ele>
        <time>2026-04-07T10:38:48.000Z</time>
      </trkpt>
      <trkpt lat="45.27357" lon="4.29064">
        <ele>788</ele>
        <time>2026-04-07T10:38:48.000Z</time>
      </trkpt>
      <trkpt lat="45.2738" lon="4.29111">
        <ele>785</ele>
        <time>2026-04-07T10:38:48.000Z</time>
      </trkpt>
      <trkpt lat="45.27309" lon="4.29118">
        <ele>784</ele>
        <time>2026-04-07T10:38:48.000Z</time>
      </trkpt>
      <trkpt lat="45.27305" lon="4.29127">
        <ele>785</ele>
        <time>2026-04-07T10:38:48.000Z</time>
      </trkpt>
      <trkpt lat="45.27298" lon="4.29164">
        <ele>788</ele>
        <time>2026-04-07T10:38:48.000Z</time>
      </trkpt>
      <trkpt lat="45.27298" lon="4.29182">
        <ele>791</ele>
        <time>2026-04-07T10:38:48.000Z</time>
      </trkpt>
      <trkpt lat="45.27293" lon="4.29193">
        <ele>794</ele>
        <time>2026-04-07T10:38:48.000Z</time>
      </trkpt>
      <trkpt lat="45.27285" lon="4.29202">
        <ele>795</ele>
        <time>2026-04-07T10:38:48.000Z</time>
      </trkpt>
      <trkpt lat="45.27264" lon="4.29199">
        <ele>797</ele>
        <time>2026-04-07T10:38:48.000Z</time>
      </trkpt>
      <trkpt lat="45.27251" lon="4.29205">
        <ele>799</ele>
        <time>2026-04-07T10:38:48.000Z</time>
      </trkpt>
      <trkpt lat="45.27152" lon="4.29227">
        <ele>814</ele>
        <time>2026-04-07T10:38:48.000Z</time>
      </trkpt>
      <trkpt lat="45.27129" lon="4.29218">
        <ele>817</ele>
        <time>2026-04-07T10:38:48.000Z</time>
      </trkpt>
      <trkpt lat="45.27099" lon="4.29184">
        <ele>819</ele>
        <time>2026-04-07T10:38:48.000Z</time>
      </trkpt>
      <trkpt lat="45.27054" lon="4.29204">
        <ele>828</ele>
        <time>2026-04-07T10:38:48.000Z</time>
      </trkpt>
      <trkpt lat="45.27023" lon="4.29253">
        <ele>833</ele>
        <time>2026-04-07T10:38:48.000Z</time>
      </trkpt>
      <trkpt lat="45.27024" lon="4.29301">
        <ele>833</ele>
        <time>2026-04-07T10:38:48.000Z</time>
      </trkpt>
      <trkpt lat="45.27035" lon="4.29406">
        <ele>840</ele>
        <time>2026-04-07T10:38:48.000Z</time>
      </trkpt>
      <trkpt lat="45.27023" lon="4.29505">
        <ele>844</ele>
        <time>2026-04-07T10:38:48.000Z</time>
      </trkpt>
      <trkpt lat="45.27023" lon="4.29522">
        <ele>844</ele>
        <time>2026-04-07T10:38:48.000Z</time>
      </trkpt>
      <trkpt lat="45.27023" lon="4.29533">
        <ele>843</ele>
        <time>2026-04-07T10:39:36.000Z</time>
      </trkpt>
      <trkpt lat="45.27018" lon="4.29526">
        <ele>844</ele>
        <time>2026-04-07T10:39:36.000Z</time>
      </trkpt>
      <trkpt lat="45.27017" lon="4.29525">
        <ele>845</ele>
        <time>2026-04-07T10:39:36.000Z</time>
      </trkpt>
      <trkpt lat="45.27018" lon="4.29526">
        <ele>844</ele>
        <time>2026-04-07T10:41:26.000Z</time>
      </trkpt>
      <trkpt lat="45.27023" lon="4.29533">
        <ele>843</ele>
        <time>2026-04-07T10:41:26.000Z</time>
      </trkpt>
      <trkpt lat="45.27026" lon="4.29542">
        <ele>843</ele>
        <time>2026-04-07T10:41:26.000Z</time>
      </trkpt>
      <trkpt lat="45.27024" lon="4.29561">
        <ele>841</ele>
        <time>2026-04-07T10:41:26.000Z</time>
      </trkpt>
      <trkpt lat="45.27017" lon="4.29579">
        <ele>841</ele>
        <time>2026-04-07T10:41:26.000Z</time>
      </trkpt>
      <trkpt lat="45.26997" lon="4.29616">
        <ele>841</ele>
        <time>2026-04-07T10:41:26.000Z</time>
      </trkpt>
      <trkpt lat="45.26991" lon="4.29693">
        <ele>835</ele>
        <time>2026-04-07T10:41:26.000Z</time>
      </trkpt>
      <trkpt lat="45.2698" lon="4.29724">
        <ele>833</ele>
        <time>2026-04-07T10:41:26.000Z</time>
      </trkpt>
      <trkpt lat="45.26962" lon="4.2975">
        <ele>830</ele>
        <time>2026-04-07T10:41:26.000Z</time>
      </trkpt>
      <trkpt lat="45.26935" lon="4.29779">
        <ele>828</ele>
        <time>2026-04-07T10:41:26.000Z</time>
      </trkpt>
      <trkpt lat="45.2692" lon="4.29791">
        <ele>827</ele>
        <time>2026-04-07T10:41:26.000Z</time>
      </trkpt>
      <trkpt lat="45.269" lon="4.29797">
        <ele>825</ele>
        <time>2026-04-07T10:41:26.000Z</time>
      </trkpt>
      <trkpt lat="45.2689" lon="4.29817">
        <ele>822</ele>
        <time>2026-04-07T10:41:26.000Z</time>
      </trkpt>
      <trkpt lat="45.26883" lon="4.29859">
        <ele>820</ele>
        <time>2026-04-07T10:41:26.000Z</time>
      </trkpt>
      <trkpt lat="45.26889" lon="4.29914">
        <ele>818</ele>
        <time>2026-04-07T10:41:26.000Z</time>
      </trkpt>
      <trkpt lat="45.26889" lon="4.29969">
        <ele>817</ele>
        <time>2026-04-07T10:41:26.000Z</time>
      </trkpt>
      <trkpt lat="45.26883" lon="4.3">
        <ele>819</ele>
        <time>2026-04-07T10:41:26.000Z</time>
      </trkpt>
      <trkpt lat="45.26891" lon="4.30046">
        <ele>816</ele>
        <time>2026-04-07T10:41:26.000Z</time>
      </trkpt>
      <trkpt lat="45.26882" lon="4.30035">
        <ele>817</ele>
        <time>2026-04-07T10:41:26.000Z</time>
      </trkpt>
      <trkpt lat="45.26863" lon="4.30026">
        <ele>814</ele>
        <time>2026-04-07T10:41:26.000Z</time>
      </trkpt>
      <trkpt lat="45.26825" lon="4.30038">
        <ele>811</ele>
        <time>2026-04-07T10:41:26.000Z</time>
      </trkpt>
      <trkpt lat="45.26808" lon="4.3005">
        <ele>809</ele>
        <time>2026-04-07T10:41:26.000Z</time>
      </trkpt>
      <trkpt lat="45.26804" lon="4.30054">
        <ele>808</ele>
        <time>2026-04-07T10:41:37.000Z</time>
      </trkpt>
      <trkpt lat="45.26802" lon="4.30056">
        <ele>808</ele>
        <time>2026-04-07T10:41:37.000Z</time>
      </trkpt>
      <trkpt lat="45.2681" lon="4.30071">
        <ele>809</ele>
        <time>2026-04-07T10:41:37.000Z</time>
      </trkpt>
      <trkpt lat="45.26812" lon="4.30087">
        <ele>808</ele>
        <time>2026-04-07T10:41:37.000Z</time>
      </trkpt>
      <trkpt lat="45.26802" lon="4.30163">
        <ele>804</ele>
        <time>2026-04-07T10:41:37.000Z</time>
      </trkpt>
      <trkpt lat="45.26802" lon="4.30179">
        <ele>803</ele>
        <time>2026-04-07T10:41:37.000Z</time>
      </trkpt>
      <trkpt lat="45.26807" lon="4.30206">
        <ele>802</ele>
        <time>2026-04-07T10:41:37.000Z</time>
      </trkpt>
      <trkpt lat="45.26821" lon="4.30244">
        <ele>799</ele>
        <time>2026-04-07T10:41:37.000Z</time>
      </trkpt>
      <trkpt lat="45.26832" lon="4.30266">
        <ele>798</ele>
        <time>2026-04-07T10:41:37.000Z</time>
      </trkpt>
      <trkpt lat="45.26876" lon="4.30305">
        <ele>795</ele>
        <time>2026-04-07T10:41:37.000Z</time>
      </trkpt>
      <trkpt lat="45.269" lon="4.30356">
        <ele>792</ele>
        <time>2026-04-07T10:41:37.000Z</time>
      </trkpt>
      <trkpt lat="45.2688" lon="4.30384">
        <ele>788</ele>
        <time>2026-04-07T10:41:37.000Z</time>
      </trkpt>
      <trkpt lat="45.26871" lon="4.30392">
        <ele>787</ele>
        <time>2026-04-07T10:41:37.000Z</time>
      </trkpt>
      <trkpt lat="45.2685" lon="4.30396">
        <ele>787</ele>
        <time>2026-04-07T10:41:37.000Z</time>
      </trkpt>
      <trkpt lat="45.26833" lon="4.30408">
        <ele>788</ele>
        <time>2026-04-07T10:41:37.000Z</time>
      </trkpt>
      <trkpt lat="45.26817" lon="4.3046">
        <ele>795</ele>
        <time>2026-04-07T10:41:37.000Z</time>
      </trkpt>
      <trkpt lat="45.26756" lon="4.30526">
        <ele>805</ele>
        <time>2026-04-07T10:41:37.000Z</time>
      </trkpt>
      <trkpt lat="45.26727" lon="4.30593">
        <ele>812</ele>
        <time>2026-04-07T10:41:37.000Z</time>
      </trkpt>
      <trkpt lat="45.26707" lon="4.30623">
        <ele>817</ele>
        <time>2026-04-07T10:41:37.000Z</time>
      </trkpt>
      <trkpt lat="45.26706" lon="4.30641">
        <ele>818</ele>
        <time>2026-04-07T10:41:37.000Z</time>
      </trkpt>
      <trkpt lat="45.26707" lon="4.30652">
        <ele>819</ele>
        <time>2026-04-07T10:41:53.000Z</time>
      </trkpt>
      <trkpt lat="45.2671" lon="4.30695">
        <ele>824</ele>
        <time>2026-04-07T10:41:53.000Z</time>
      </trkpt>
      <trkpt lat="45.26714" lon="4.30706">
        <ele>825</ele>
        <time>2026-04-07T10:41:53.000Z</time>
      </trkpt>
      <trkpt lat="45.26749" lon="4.30733">
        <ele>833</ele>
        <time>2026-04-07T10:41:53.000Z</time>
      </trkpt>
      <trkpt lat="45.26764" lon="4.30792">
        <ele>841</ele>
        <time>2026-04-07T10:41:53.000Z</time>
      </trkpt>
      <trkpt lat="45.26777" lon="4.30827">
        <ele>843</ele>
        <time>2026-04-07T10:41:53.000Z</time>
      </trkpt>
      <trkpt lat="45.2678" lon="4.30852">
        <ele>845</ele>
        <time>2026-04-07T10:41:53.000Z</time>
      </trkpt>
      <trkpt lat="45.2677" lon="4.30901">
        <ele>843</ele>
        <time>2026-04-07T10:41:53.000Z</time>
      </trkpt>
      <trkpt lat="45.26775" lon="4.30985">
        <ele>844</ele>
        <time>2026-04-07T10:41:53.000Z</time>
      </trkpt>
      <trkpt lat="45.26773" lon="4.31002">
        <ele>845</ele>
        <time>2026-04-07T10:41:53.000Z</time>
      </trkpt>
      <trkpt lat="45.26764" lon="4.31021">
        <ele>846</ele>
        <time>2026-04-07T10:41:53.000Z</time>
      </trkpt>
      <trkpt lat="45.26717" lon="4.30991">
        <ele>845</ele>
        <time>2026-04-07T10:41:53.000Z</time>
      </trkpt>
      <trkpt lat="45.26698" lon="4.30992">
        <ele>845</ele>
        <time>2026-04-07T10:41:53.000Z</time>
      </trkpt>
      <trkpt lat="45.26665" lon="4.31001">
        <ele>845</ele>
        <time>2026-04-07T10:41:53.000Z</time>
      </trkpt>
      <trkpt lat="45.26636" lon="4.31021">
        <ele>842</ele>
        <time>2026-04-07T10:41:53.000Z</time>
      </trkpt>
      <trkpt lat="45.2662" lon="4.31041">
        <ele>844</ele>
        <time>2026-04-07T10:41:53.000Z</time>
      </trkpt>
      <trkpt lat="45.26618" lon="4.31077">
        <ele>845</ele>
        <time>2026-04-07T10:41:53.000Z</time>
      </trkpt>
      <trkpt lat="45.26618" lon="4.31105">
        <ele>846</ele>
        <time>2026-04-07T10:42:03.000Z</time>
      </trkpt>
      <trkpt lat="45.26617" lon="4.31119">
        <ele>847</ele>
        <time>2026-04-07T10:42:03.000Z</time>
      </trkpt>
      <trkpt lat="45.26601" lon="4.31152">
        <ele>849</ele>
        <time>2026-04-07T10:42:03.000Z</time>
      </trkpt>
      <trkpt lat="45.26562" lon="4.31213">
        <ele>852</ele>
        <time>2026-04-07T10:42:03.000Z</time>
      </trkpt>
      <trkpt lat="45.26533" lon="4.31266">
        <ele>856</ele>
        <time>2026-04-07T10:42:03.000Z</time>
      </trkpt>
      <trkpt lat="45.26499" lon="4.31312">
        <ele>859</ele>
        <time>2026-04-07T10:42:03.000Z</time>
      </trkpt>
      <trkpt lat="45.26459" lon="4.31387">
        <ele>864</ele>
        <time>2026-04-07T10:42:03.000Z</time>
      </trkpt>
      <trkpt lat="45.26402" lon="4.31459">
        <ele>871</ele>
        <time>2026-04-07T10:42:03.000Z</time>
      </trkpt>
      <trkpt lat="45.26365" lon="4.31569">
        <ele>883</ele>
        <time>2026-04-07T10:42:03.000Z</time>
      </trkpt>
      <trkpt lat="45.26306" lon="4.31692">
        <ele>894</ele>
        <time>2026-04-07T10:42:03.000Z</time>
      </trkpt>
      <trkpt lat="45.26328" lon="4.31688">
        <ele>894</ele>
        <time>2026-04-07T10:42:09.000Z</time>
      </trkpt>
      <trkpt lat="45.2637" lon="4.31682">
        <ele>894</ele>
        <time>2026-04-07T10:42:09.000Z</time>
      </trkpt>
      <trkpt lat="45.26411" lon="4.31683">
        <ele>893</ele>
        <time>2026-04-07T10:42:09.000Z</time>
      </trkpt>
      <trkpt lat="45.26461" lon="4.31689">
        <ele>893</ele>
        <time>2026-04-07T10:42:09.000Z</time>
      </trkpt>
      <trkpt lat="45.26514" lon="4.31706">
        <ele>891</ele>
        <time>2026-04-07T10:42:09.000Z</time>
      </trkpt>
      <trkpt lat="45.26544" lon="4.31702">
        <ele>888</ele>
        <time>2026-04-07T10:42:09.000Z</time>
      </trkpt>
      <trkpt lat="45.26575" lon="4.31684">
        <ele>882</ele>
        <time>2026-04-07T10:42:09.000Z</time>
      </trkpt>
      <trkpt lat="45.26612" lon="4.31674">
        <ele>881</ele>
        <time>2026-04-07T10:42:09.000Z</time>
      </trkpt>
      <trkpt lat="45.26687" lon="4.31578">
        <ele>875</ele>
        <time>2026-04-07T10:42:09.000Z</time>
      </trkpt>
      <trkpt lat="45.26713" lon="4.3155">
        <ele>875</ele>
        <time>2026-04-07T10:42:09.000Z</time>
      </trkpt>
      <trkpt lat="45.26745" lon="4.31525">
        <ele>874</ele>
        <time>2026-04-07T10:42:09.000Z</time>
      </trkpt>
      <trkpt lat="45.26785" lon="4.31508">
        <ele>872</ele>
        <time>2026-04-07T10:42:09.000Z</time>
      </trkpt>
      <trkpt lat="45.26924" lon="4.3147">
        <ele>868</ele>
        <time>2026-04-07T10:42:09.000Z</time>
      </trkpt>
      <trkpt lat="45.26962" lon="4.31441">
        <ele>865</ele>
        <time>2026-04-07T10:42:09.000Z</time>
      </trkpt>
      <trkpt lat="45.26987" lon="4.31434">
        <ele>863</ele>
        <time>2026-04-07T10:42:09.000Z</time>
      </trkpt>
      <trkpt lat="45.27001" lon="4.31433">
        <ele>861</ele>
        <time>2026-04-07T10:46:23.000Z</time>
      </trkpt>
      <trkpt lat="45.26999" lon="4.31435">
        <ele>862</ele>
        <time>2026-04-07T10:46:23.000Z</time>
      </trkpt>
      <trkpt lat="45.26966" lon="4.31471">
        <ele>863</ele>
        <time>2026-04-07T10:46:23.000Z</time>
      </trkpt>
      <trkpt lat="45.26804" lon="4.31677">
        <ele>878</ele>
        <time>2026-04-07T10:46:23.000Z</time>
      </trkpt>
      <trkpt lat="45.26771" lon="4.3173">
        <ele>882</ele>
        <time>2026-04-07T10:46:23.000Z</time>
      </trkpt>
      <trkpt lat="45.26745" lon="4.31787">
        <ele>884</ele>
        <time>2026-04-07T10:46:23.000Z</time>
      </trkpt>
      <trkpt lat="45.26737" lon="4.31816">
        <ele>887</ele>
        <time>2026-04-07T10:46:23.000Z</time>
      </trkpt>
      <trkpt lat="45.26722" lon="4.31898">
        <ele>889</ele>
        <time>2026-04-07T10:46:23.000Z</time>
      </trkpt>
      <trkpt lat="45.26703" lon="4.31964">
        <ele>893</ele>
        <time>2026-04-07T10:46:23.000Z</time>
      </trkpt>
      <trkpt lat="45.26693" lon="4.32038">
        <ele>897</ele>
        <time>2026-04-07T10:46:23.000Z</time>
      </trkpt>
      <trkpt lat="45.26693" lon="4.32071">
        <ele>898</ele>
        <time>2026-04-07T10:46:23.000Z</time>
      </trkpt>
      <trkpt lat="45.26699" lon="4.32103">
        <ele>900</ele>
        <time>2026-04-07T10:46:23.000Z</time>
      </trkpt>
      <trkpt lat="45.26752" lon="4.32268">
        <ele>902</ele>
        <time>2026-04-07T10:46:23.000Z</time>
      </trkpt>
      <trkpt lat="45.2675" lon="4.32272">
        <ele>903</ele>
        <time>2026-04-07T10:46:23.000Z</time>
      </trkpt>
      <trkpt lat="45.26762" lon="4.32318">
        <ele>903</ele>
        <time>2026-04-07T10:46:23.000Z</time>
      </trkpt>
      <trkpt lat="45.26783" lon="4.32375">
        <ele>905</ele>
        <time>2026-04-07T10:46:23.000Z</time>
      </trkpt>
      <trkpt lat="45.26793" lon="4.32463">
        <ele>910</ele>
        <time>2026-04-07T10:46:23.000Z</time>
      </trkpt>
      <trkpt lat="45.26784" lon="4.32599">
        <ele>910</ele>
        <time>2026-04-07T10:46:23.000Z</time>
      </trkpt>
      <trkpt lat="45.26757" lon="4.32709">
        <ele>908</ele>
        <time>2026-04-07T10:46:23.000Z</time>
      </trkpt>
      <trkpt lat="45.26743" lon="4.32751">
        <ele>909</ele>
        <time>2026-04-07T10:46:23.000Z</time>
      </trkpt>
      <trkpt lat="45.26702" lon="4.32878">
        <ele>915</ele>
        <time>2026-04-07T10:46:23.000Z</time>
      </trkpt>
      <trkpt lat="45.26693" lon="4.32931">
        <ele>916</ele>
        <time>2026-04-07T10:46:23.000Z</time>
      </trkpt>
      <trkpt lat="45.26696" lon="4.32972">
        <ele>915</ele>
        <time>2026-04-07T10:46:23.000Z</time>
      </trkpt>
      <trkpt lat="45.26688" lon="4.32997">
        <ele>915</ele>
        <time>2026-04-07T10:46:23.000Z</time>
      </trkpt>
      <trkpt lat="45.2668" lon="4.33008">
        <ele>915</ele>
        <time>2026-04-07T10:46:23.000Z</time>
      </trkpt>
      <trkpt lat="45.26672" lon="4.33043">
        <ele>916</ele>
        <time>2026-04-07T10:46:23.000Z</time>
      </trkpt>
      <trkpt lat="45.26645" lon="4.3318">
        <ele>917</ele>
        <time>2026-04-07T10:46:23.000Z</time>
      </trkpt>
      <trkpt lat="45.26637" lon="4.33208">
        <ele>916</ele>
        <time>2026-04-07T10:46:23.000Z</time>
      </trkpt>
      <trkpt lat="45.26638" lon="4.33208">
        <ele>916</ele>
        <time>2026-04-07T10:46:55.000Z</time>
      </trkpt>
      <trkpt lat="45.2663" lon="4.33224">
        <ele>917</ele>
        <time>2026-04-07T10:46:55.000Z</time>
      </trkpt>
      <trkpt lat="45.26622" lon="4.33227">
        <ele>916</ele>
        <time>2026-04-07T10:46:55.000Z</time>
      </trkpt>
      <trkpt lat="45.26623" lon="4.33243">
        <ele>917</ele>
        <time>2026-04-07T10:46:55.000Z</time>
      </trkpt>
      <trkpt lat="45.26669" lon="4.33289">
        <ele>920</ele>
        <time>2026-04-07T10:46:55.000Z</time>
      </trkpt>
      <trkpt lat="45.26664" lon="4.33379">
        <ele>922</ele>
        <time>2026-04-07T10:46:55.000Z</time>
      </trkpt>
      <trkpt lat="45.26663" lon="4.33386">
        <ele>922</ele>
        <time>2026-04-07T10:46:57.000Z</time>
      </trkpt>
      <trkpt lat="45.26669" lon="4.33404">
        <ele>922</ele>
        <time>2026-04-07T10:46:57.000Z</time>
      </trkpt>
      <trkpt lat="45.26666" lon="4.33443">
        <ele>922</ele>
        <time>2026-04-07T10:46:57.000Z</time>
      </trkpt>
      <trkpt lat="45.26668" lon="4.33457">
        <ele>922</ele>
        <time>2026-04-07T10:46:57.000Z</time>
      </trkpt>
      <trkpt lat="45.26658" lon="4.33473">
        <ele>923</ele>
        <time>2026-04-07T10:46:57.000Z</time>
      </trkpt>
      <trkpt lat="45.26651" lon="4.33493">
        <ele>923</ele>
        <time>2026-04-07T10:46:57.000Z</time>
      </trkpt>
      <trkpt lat="45.2666" lon="4.33528">
        <ele>921</ele>
        <time>2026-04-07T10:46:57.000Z</time>
      </trkpt>
      <trkpt lat="45.26672" lon="4.33523">
        <ele>920</ele>
        <time>2026-04-07T10:46:57.000Z</time>
      </trkpt>
      <trkpt lat="45.2669" lon="4.33561">
        <ele>916</ele>
        <time>2026-04-07T10:46:57.000Z</time>
      </trkpt>
      <trkpt lat="45.26688" lon="4.33565">
        <ele>917</ele>
        <time>2026-04-07T10:47:14.000Z</time>
      </trkpt>
      <trkpt lat="45.26682" lon="4.33588">
        <ele>916</ele>
        <time>2026-04-07T10:47:14.000Z</time>
      </trkpt>
      <trkpt lat="45.26699" lon="4.33636">
        <ele>919</ele>
        <time>2026-04-07T10:47:14.000Z</time>
      </trkpt>
      <trkpt lat="45.26693" lon="4.33642">
        <ele>919</ele>
        <time>2026-04-07T10:47:14.000Z</time>
      </trkpt>
      <trkpt lat="45.26722" lon="4.33677">
        <ele>923</ele>
        <time>2026-04-07T10:47:14.000Z</time>
      </trkpt>
      <trkpt lat="45.26741" lon="4.33682">
        <ele>924</ele>
        <time>2026-04-07T10:47:14.000Z</time>
      </trkpt>
      <trkpt lat="45.2675" lon="4.33694">
        <ele>927</ele>
        <time>2026-04-07T10:47:14.000Z</time>
      </trkpt>
      <trkpt lat="45.26757" lon="4.33706">
        <ele>927</ele>
        <time>2026-04-07T10:47:43.000Z</time>
      </trkpt>
      <trkpt lat="45.26779" lon="4.33753">
        <ele>929</ele>
        <time>2026-04-07T10:47:43.000Z</time>
      </trkpt>
      <trkpt lat="45.26785" lon="4.33787">
        <ele>930</ele>
        <time>2026-04-07T10:47:43.000Z</time>
      </trkpt>
      <trkpt lat="45.26792" lon="4.33853">
        <ele>930</ele>
        <time>2026-04-07T10:47:43.000Z</time>
      </trkpt>
      <trkpt lat="45.26842" lon="4.33977">
        <ele>934</ele>
        <time>2026-04-07T10:47:43.000Z</time>
      </trkpt>
      <trkpt lat="45.26857" lon="4.341">
        <ele>947</ele>
        <time>2026-04-07T10:47:43.000Z</time>
      </trkpt>
      <trkpt lat="45.26857" lon="4.34114">
        <ele>949</ele>
        <time>2026-04-07T10:47:43.000Z</time>
      </trkpt>
      <trkpt lat="45.26849" lon="4.34138">
        <ele>950</ele>
        <time>2026-04-07T10:47:43.000Z</time>
      </trkpt>
      <trkpt lat="45.26848" lon="4.34139">
        <ele>950</ele>
        <time>2026-04-07T10:47:51.000Z</time>
      </trkpt>
      <trkpt lat="45.26846" lon="4.34143">
        <ele>950</ele>
        <time>2026-04-07T10:47:51.000Z</time>
      </trkpt>
      <trkpt lat="45.26827" lon="4.34189">
        <ele>953</ele>
        <time>2026-04-07T10:47:51.000Z</time>
      </trkpt>
      <trkpt lat="45.26828" lon="4.34277">
        <ele>957</ele>
        <time>2026-04-07T10:47:51.000Z</time>
      </trkpt>
      <trkpt lat="45.2681" lon="4.34396">
        <ele>959</ele>
        <time>2026-04-07T10:47:51.000Z</time>
      </trkpt>
      <trkpt lat="45.26824" lon="4.34394">
        <ele>959</ele>
        <time>2026-04-07T10:48:09.000Z</time>
      </trkpt>
      <trkpt lat="45.26844" lon="4.34386">
        <ele>959</ele>
        <time>2026-04-07T10:48:09.000Z</time>
      </trkpt>
      <trkpt lat="45.26863" lon="4.34369">
        <ele>958</ele>
        <time>2026-04-07T10:48:09.000Z</time>
      </trkpt>
      <trkpt lat="45.26871" lon="4.3437">
        <ele>958</ele>
        <time>2026-04-07T10:48:09.000Z</time>
      </trkpt>
      <trkpt lat="45.26926" lon="4.34437">
        <ele>952</ele>
        <time>2026-04-07T10:48:09.000Z</time>
      </trkpt>
      <trkpt lat="45.26941" lon="4.34527">
        <ele>943</ele>
        <time>2026-04-07T10:48:09.000Z</time>
      </trkpt>
      <trkpt lat="45.26942" lon="4.34575">
        <ele>938</ele>
        <time>2026-04-07T10:48:09.000Z</time>
      </trkpt>
      <trkpt lat="45.26946" lon="4.34607">
        <ele>932</ele>
        <time>2026-04-07T10:48:09.000Z</time>
      </trkpt>
      <trkpt lat="45.26954" lon="4.34605">
        <ele>932</ele>
        <time>2026-04-07T10:48:11.000Z</time>
      </trkpt>
      <trkpt lat="45.26971" lon="4.34595">
        <ele>933</ele>
        <time>2026-04-07T10:48:11.000Z</time>
      </trkpt>
      <trkpt lat="45.2699" lon="4.34578">
        <ele>933</ele>
        <time>2026-04-07T10:48:11.000Z</time>
      </trkpt>
      <trkpt lat="45.26993" lon="4.34574">
        <ele>933</ele>
        <time>2026-04-07T10:48:16.000Z</time>
      </trkpt>
      <trkpt lat="45.27008" lon="4.34549">
        <ele>931</ele>
        <time>2026-04-07T10:48:16.000Z</time>
      </trkpt>
      <trkpt lat="45.27037" lon="4.34472">
        <ele>930</ele>
        <time>2026-04-07T10:48:16.000Z</time>
      </trkpt>
      <trkpt lat="45.27092" lon="4.34391">
        <ele>924</ele>
        <time>2026-04-07T10:48:16.000Z</time>
      </trkpt>
      <trkpt lat="45.27107" lon="4.34379">
        <ele>922</ele>
        <time>2026-04-07T10:48:16.000Z</time>
      </trkpt>
      <trkpt lat="45.27141" lon="4.34363">
        <ele>916</ele>
        <time>2026-04-07T10:48:16.000Z</time>
      </trkpt>
      <trkpt lat="45.27142" lon="4.34371">
        <ele>916</ele>
        <time>2026-04-07T10:48:16.000Z</time>
      </trkpt>
      <trkpt lat="45.27143" lon="4.34373">
        <ele>916</ele>
        <time>2026-04-07T10:48:35.000Z</time>
      </trkpt>
      <trkpt lat="45.27149" lon="4.34412">
        <ele>914</ele>
        <time>2026-04-07T10:48:35.000Z</time>
      </trkpt>
      <trkpt lat="45.27149" lon="4.34431">
        <ele>913</ele>
        <time>2026-04-07T10:48:35.000Z</time>
      </trkpt>
      <trkpt lat="45.2714" lon="4.34494">
        <ele>912</ele>
        <time>2026-04-07T10:48:35.000Z</time>
      </trkpt>
      <trkpt lat="45.27134" lon="4.34589">
        <ele>913</ele>
        <time>2026-04-07T10:48:35.000Z</time>
      </trkpt>
      <trkpt lat="45.27078" lon="4.34763">
        <ele>908</ele>
        <time>2026-04-07T10:48:35.000Z</time>
      </trkpt>
      <trkpt lat="45.27048" lon="4.34824">
        <ele>904</ele>
        <time>2026-04-07T10:48:35.000Z</time>
      </trkpt>
      <trkpt lat="45.27018" lon="4.34857">
        <ele>901</ele>
        <time>2026-04-07T10:48:35.000Z</time>
      </trkpt>
      <trkpt lat="45.26999" lon="4.34865">
        <ele>899</ele>
        <time>2026-04-07T10:48:35.000Z</time>
      </trkpt>
      <trkpt lat="45.26975" lon="4.34857">
        <ele>900</ele>
        <time>2026-04-07T10:48:35.000Z</time>
      </trkpt>
      <trkpt lat="45.26922" lon="4.34808">
        <ele>898</ele>
        <time>2026-04-07T10:48:35.000Z</time>
      </trkpt>
      <trkpt lat="45.26896" lon="4.3479">
        <ele>898</ele>
        <time>2026-04-07T10:48:35.000Z</time>
      </trkpt>
      <trkpt lat="45.26872" lon="4.34791">
        <ele>897</ele>
        <time>2026-04-07T10:48:35.000Z</time>
      </trkpt>
      <trkpt lat="45.26861" lon="4.34798">
        <ele>896</ele>
        <time>2026-04-07T10:48:35.000Z</time>
      </trkpt>
      <trkpt lat="45.2685" lon="4.34815">
        <ele>895</ele>
        <time>2026-04-07T10:48:35.000Z</time>
      </trkpt>
      <trkpt lat="45.26849" lon="4.34815">
        <ele>895</ele>
        <time>2026-04-07T10:48:57.000Z</time>
      </trkpt>
      <trkpt lat="45.26848" lon="4.35073">
        <ele>903</ele>
        <time>2026-04-07T10:48:57.000Z</time>
      </trkpt>
      <trkpt lat="45.26852" lon="4.35108">
        <ele>903</ele>
        <time>2026-04-07T10:48:57.000Z</time>
      </trkpt>
      <trkpt lat="45.2686" lon="4.35139">
        <ele>904</ele>
        <time>2026-04-07T10:48:57.000Z</time>
      </trkpt>
      <trkpt lat="45.26861" lon="4.35141">
        <ele>904</ele>
        <time>2026-04-07T10:48:58.000Z</time>
      </trkpt>
      <trkpt lat="45.26868" lon="4.35178">
        <ele>907</ele>
        <time>2026-04-07T10:48:58.000Z</time>
      </trkpt>
      <trkpt lat="45.26866" lon="4.3525">
        <ele>906</ele>
        <time>2026-04-07T10:48:58.000Z</time>
      </trkpt>
      <trkpt lat="45.26855" lon="4.35275">
        <ele>904</ele>
        <time>2026-04-07T10:48:58.000Z</time>
      </trkpt>
      <trkpt lat="45.26824" lon="4.3532">
        <ele>902</ele>
        <time>2026-04-07T10:48:58.000Z</time>
      </trkpt>
      <trkpt lat="45.26814" lon="4.35343">
        <ele>901</ele>
        <time>2026-04-07T10:48:58.000Z</time>
      </trkpt>
      <trkpt lat="45.2681" lon="4.35376">
        <ele>901</ele>
        <time>2026-04-07T10:48:58.000Z</time>
      </trkpt>
      <trkpt lat="45.26815" lon="4.35413">
        <ele>902</ele>
        <time>2026-04-07T10:48:58.000Z</time>
      </trkpt>
      <trkpt lat="45.26813" lon="4.35434">
        <ele>903</ele>
        <time>2026-04-07T10:48:58.000Z</time>
      </trkpt>
      <trkpt lat="45.26799" lon="4.35479">
        <ele>902</ele>
        <time>2026-04-07T10:48:58.000Z</time>
      </trkpt>
      <trkpt lat="45.26796" lon="4.35499">
        <ele>901</ele>
        <time>2026-04-07T10:48:58.000Z</time>
      </trkpt>
      <trkpt lat="45.26796" lon="4.35548">
        <ele>901</ele>
        <time>2026-04-07T10:48:58.000Z</time>
      </trkpt>
      <trkpt lat="45.26809" lon="4.35605">
        <ele>899</ele>
        <time>2026-04-07T10:48:58.000Z</time>
      </trkpt>
      <trkpt lat="45.26811" lon="4.3563">
        <ele>898</ele>
        <time>2026-04-07T10:48:58.000Z</time>
      </trkpt>
      <trkpt lat="45.2681" lon="4.35661">
        <ele>896</ele>
        <time>2026-04-07T10:48:58.000Z</time>
      </trkpt>
      <trkpt lat="45.26798" lon="4.35725">
        <ele>891</ele>
        <time>2026-04-07T10:48:58.000Z</time>
      </trkpt>
      <trkpt lat="45.26803" lon="4.35739">
        <ele>890</ele>
        <time>2026-04-07T10:48:58.000Z</time>
      </trkpt>
      <trkpt lat="45.26809" lon="4.35743">
        <ele>889</ele>
        <time>2026-04-07T10:48:58.000Z</time>
      </trkpt>
      <trkpt lat="45.26855" lon="4.35752">
        <ele>886</ele>
        <time>2026-04-07T10:48:58.000Z</time>
      </trkpt>
      <trkpt lat="45.26882" lon="4.35772">
        <ele>888</ele>
        <time>2026-04-07T10:48:58.000Z</time>
      </trkpt>
      <trkpt lat="45.26889" lon="4.35784">
        <ele>887</ele>
        <time>2026-04-07T10:48:58.000Z</time>
      </trkpt>
      <trkpt lat="45.26896" lon="4.35811">
        <ele>886</ele>
        <time>2026-04-07T10:48:58.000Z</time>
      </trkpt>
      <trkpt lat="45.26897" lon="4.35894">
        <ele>885</ele>
        <time>2026-04-07T10:48:58.000Z</time>
      </trkpt>
      <trkpt lat="45.26897" lon="4.35898">
        <ele>885</ele>
        <time>2026-04-07T10:49:25.000Z</time>
      </trkpt>
      <trkpt lat="45.26886" lon="4.3592">
        <ele>885</ele>
        <time>2026-04-07T10:49:25.000Z</time>
      </trkpt>
      <trkpt lat="45.2685" lon="4.35963">
        <ele>884</ele>
        <time>2026-04-07T10:49:25.000Z</time>
      </trkpt>
      <trkpt lat="45.26845" lon="4.35974">
        <ele>884</ele>
        <time>2026-04-07T10:49:25.000Z</time>
      </trkpt>
      <trkpt lat="45.26841" lon="4.35997">
        <ele>883</ele>
        <time>2026-04-07T10:49:25.000Z</time>
      </trkpt>
      <trkpt lat="45.26852" lon="4.36026">
        <ele>883</ele>
        <time>2026-04-07T10:49:25.000Z</time>
      </trkpt>
      <trkpt lat="45.2689" lon="4.36065">
        <ele>881</ele>
        <time>2026-04-07T10:49:25.000Z</time>
      </trkpt>
      <trkpt lat="45.26898" lon="4.36079">
        <ele>880</ele>
        <time>2026-04-07T10:49:25.000Z</time>
      </trkpt>
      <trkpt lat="45.26908" lon="4.36106">
        <ele>877</ele>
        <time>2026-04-07T10:49:25.000Z</time>
      </trkpt>
      <trkpt lat="45.26909" lon="4.36143">
        <ele>874</ele>
        <time>2026-04-07T10:49:25.000Z</time>
      </trkpt>
      <trkpt lat="45.26908" lon="4.36147">
        <ele>874</ele>
        <time>2026-04-07T10:50:17.000Z</time>
      </trkpt>
      <trkpt lat="45.26901" lon="4.36188">
        <ele>872</ele>
        <time>2026-04-07T10:50:17.000Z</time>
      </trkpt>
      <trkpt lat="45.26901" lon="4.36211">
        <ele>871</ele>
        <time>2026-04-07T10:50:17.000Z</time>
      </trkpt>
      <trkpt lat="45.26906" lon="4.36226">
        <ele>869</ele>
        <time>2026-04-07T10:50:17.000Z</time>
      </trkpt>
      <trkpt lat="45.26923" lon="4.36246">
        <ele>868</ele>
        <time>2026-04-07T10:50:17.000Z</time>
      </trkpt>
      <trkpt lat="45.26946" lon="4.36262">
        <ele>867</ele>
        <time>2026-04-07T10:50:17.000Z</time>
      </trkpt>
      <trkpt lat="45.26997" lon="4.36281">
        <ele>869</ele>
        <time>2026-04-07T10:50:17.000Z</time>
      </trkpt>
      <trkpt lat="45.27012" lon="4.36302">
        <ele>869</ele>
        <time>2026-04-07T10:50:17.000Z</time>
      </trkpt>
      <trkpt lat="45.27022" lon="4.36335">
        <ele>869</ele>
        <time>2026-04-07T10:50:17.000Z</time>
      </trkpt>
      <trkpt lat="45.27024" lon="4.3636">
        <ele>869</ele>
        <time>2026-04-07T10:50:17.000Z</time>
      </trkpt>
      <trkpt lat="45.27021" lon="4.36379">
        <ele>870</ele>
        <time>2026-04-07T10:50:17.000Z</time>
      </trkpt>
      <trkpt lat="45.27001" lon="4.36462">
        <ele>873</ele>
        <time>2026-04-07T10:50:17.000Z</time>
      </trkpt>
      <trkpt lat="45.26994" lon="4.36516">
        <ele>872</ele>
        <time>2026-04-07T10:50:17.000Z</time>
      </trkpt>
      <trkpt lat="45.26968" lon="4.3663">
        <ele>867</ele>
        <time>2026-04-07T10:50:17.000Z</time>
      </trkpt>
      <trkpt lat="45.26968" lon="4.36644">
        <ele>866</ele>
        <time>2026-04-07T10:50:17.000Z</time>
      </trkpt>
      <trkpt lat="45.26973" lon="4.36663">
        <ele>865</ele>
        <time>2026-04-07T10:50:17.000Z</time>
      </trkpt>
      <trkpt lat="45.26989" lon="4.36699">
        <ele>864</ele>
        <time>2026-04-07T10:50:17.000Z</time>
      </trkpt>
      <trkpt lat="45.2701" lon="4.367">
        <ele>864</ele>
        <time>2026-04-07T10:50:17.000Z</time>
      </trkpt>
      <trkpt lat="45.27023" lon="4.36695">
        <ele>865</ele>
        <time>2026-04-07T10:50:17.000Z</time>
      </trkpt>
      <trkpt lat="45.27049" lon="4.36656">
        <ele>868</ele>
        <time>2026-04-07T10:50:17.000Z</time>
      </trkpt>
      <trkpt lat="45.27108" lon="4.36634">
        <ele>875</ele>
        <time>2026-04-07T10:50:17.000Z</time>
      </trkpt>
      <trkpt lat="45.27128" lon="4.36642">
        <ele>876</ele>
        <time>2026-04-07T10:50:38.000Z</time>
      </trkpt>
      <trkpt lat="45.27175" lon="4.36654">
        <ele>882</ele>
        <time>2026-04-07T10:50:38.000Z</time>
      </trkpt>
      <trkpt lat="45.27186" lon="4.36664">
        <ele>884</ele>
        <time>2026-04-07T10:50:38.000Z</time>
      </trkpt>
      <trkpt lat="45.27202" lon="4.36702">
        <ele>886</ele>
        <time>2026-04-07T10:50:38.000Z</time>
      </trkpt>
      <trkpt lat="45.27219" lon="4.36762">
        <ele>891</ele>
        <time>2026-04-07T10:50:38.000Z</time>
      </trkpt>
      <trkpt lat="45.27263" lon="4.36873">
        <ele>898</ele>
        <time>2026-04-07T10:50:38.000Z</time>
      </trkpt>
      <trkpt lat="45.27307" lon="4.36974">
        <ele>903</ele>
        <time>2026-04-07T10:50:38.000Z</time>
      </trkpt>
      <trkpt lat="45.27314" lon="4.36992">
        <ele>905</ele>
        <time>2026-04-07T10:51:06.000Z</time>
      </trkpt>
      <trkpt lat="45.27308" lon="4.37005">
        <ele>904</ele>
        <time>2026-04-07T10:51:06.000Z</time>
      </trkpt>
      <trkpt lat="45.27314" lon="4.36992">
        <ele>905</ele>
        <time>2026-04-07T10:51:10.000Z</time>
      </trkpt>
      <trkpt lat="45.27325" lon="4.37014">
        <ele>906</ele>
        <time>2026-04-07T10:51:10.000Z</time>
      </trkpt>
      <trkpt lat="45.27395" lon="4.37142">
        <ele>908</ele>
        <time>2026-04-07T10:51:10.000Z</time>
      </trkpt>
      <trkpt lat="45.2741" lon="4.37189">
        <ele>907</ele>
        <time>2026-04-07T10:51:10.000Z</time>
      </trkpt>
      <trkpt lat="45.27443" lon="4.37249">
        <ele>908</ele>
        <time>2026-04-07T10:51:10.000Z</time>
      </trkpt>
      <trkpt lat="45.27479" lon="4.37302">
        <ele>911</ele>
        <time>2026-04-07T10:51:10.000Z</time>
      </trkpt>
      <trkpt lat="45.27485" lon="4.3732">
        <ele>911</ele>
        <time>2026-04-07T10:51:10.000Z</time>
      </trkpt>
      <trkpt lat="45.27482" lon="4.37332">
        <ele>912</ele>
        <time>2026-04-07T10:51:10.000Z</time>
      </trkpt>
      <trkpt lat="45.27485" lon="4.3733">
        <ele>911</ele>
        <time>2026-04-07T10:51:11.000Z</time>
      </trkpt>
      <trkpt lat="45.27527" lon="4.37315">
        <ele>912</ele>
        <time>2026-04-07T10:51:11.000Z</time>
      </trkpt>
      <trkpt lat="45.2758" lon="4.37284">
        <ele>913</ele>
        <time>2026-04-07T10:51:11.000Z</time>
      </trkpt>
      <trkpt lat="45.27621" lon="4.37255">
        <ele>918</ele>
        <time>2026-04-07T10:51:11.000Z</time>
      </trkpt>
      <trkpt lat="45.27663" lon="4.37191">
        <ele>922</ele>
        <time>2026-04-07T10:51:11.000Z</time>
      </trkpt>
      <trkpt lat="45.27747" lon="4.37099">
        <ele>928</ele>
        <time>2026-04-07T10:51:11.000Z</time>
      </trkpt>
      <trkpt lat="45.27763" lon="4.37075">
        <ele>930</ele>
        <time>2026-04-07T10:51:11.000Z</time>
      </trkpt>
      <trkpt lat="45.27787" lon="4.37017">
        <ele>934</ele>
        <time>2026-04-07T10:51:11.000Z</time>
      </trkpt>
      <trkpt lat="45.278" lon="4.36997">
        <ele>935</ele>
        <time>2026-04-07T10:51:11.000Z</time>
      </trkpt>
      <trkpt lat="45.27844" lon="4.36951">
        <ele>940</ele>
        <time>2026-04-07T10:51:11.000Z</time>
      </trkpt>
      <trkpt lat="45.27859" lon="4.36948">
        <ele>941</ele>
        <time>2026-04-07T10:51:11.000Z</time>
      </trkpt>
      <trkpt lat="45.27857" lon="4.36958">
        <ele>941</ele>
        <time>2026-04-07T10:51:11.000Z</time>
      </trkpt>
      <trkpt lat="45.27859" lon="4.36948">
        <ele>941</ele>
        <time>2026-04-07T10:52:11.000Z</time>
      </trkpt>
      <trkpt lat="45.2785" lon="4.36947">
        <ele>940</ele>
        <time>2026-04-07T10:52:11.000Z</time>
      </trkpt>
      <trkpt lat="45.27838" lon="4.36957">
        <ele>939</ele>
        <time>2026-04-07T10:52:11.000Z</time>
      </trkpt>
      <trkpt lat="45.27838" lon="4.36957">
        <ele>939</ele>
        <time>2026-04-07T10:52:02.000Z</time>
      </trkpt>
      <trkpt lat="45.27844" lon="4.36951">
        <ele>940</ele>
        <time>2026-04-07T10:52:39.000Z</time>
      </trkpt>
      <trkpt lat="45.27859" lon="4.36948">
        <ele>941</ele>
        <time>2026-04-07T10:52:39.000Z</time>
      </trkpt>
      <trkpt lat="45.27869" lon="4.36909">
        <ele>943</ele>
        <time>2026-04-07T10:52:39.000Z</time>
      </trkpt>
      <trkpt lat="45.27872" lon="4.36852">
        <ele>944</ele>
        <time>2026-04-07T10:52:39.000Z</time>
      </trkpt>
      <trkpt lat="45.27864" lon="4.36734">
        <ele>945</ele>
        <time>2026-04-07T10:52:39.000Z</time>
      </trkpt>
      <trkpt lat="45.27873" lon="4.36699">
        <ele>946</ele>
        <time>2026-04-07T10:52:39.000Z</time>
      </trkpt>
      <trkpt lat="45.27895" lon="4.3664">
        <ele>948</ele>
        <time>2026-04-07T10:52:39.000Z</time>
      </trkpt>
      <trkpt lat="45.27896" lon="4.36638">
        <ele>948</ele>
        <time>2026-04-07T10:53:48.000Z</time>
      </trkpt>
      <trkpt lat="45.27905" lon="4.36621">
        <ele>948</ele>
        <time>2026-04-07T10:53:48.000Z</time>
      </trkpt>
      <trkpt lat="45.27877" lon="4.36604">
        <ele>948</ele>
        <time>2026-04-07T10:53:48.000Z</time>
      </trkpt>
      <trkpt lat="45.27849" lon="4.36579">
        <ele>949</ele>
        <time>2026-04-07T10:53:48.000Z</time>
      </trkpt>
      <trkpt lat="45.27822" lon="4.36548">
        <ele>950</ele>
        <time>2026-04-07T10:53:48.000Z</time>
      </trkpt>
      <trkpt lat="45.27807" lon="4.36523">
        <ele>950</ele>
        <time>2026-04-07T10:53:48.000Z</time>
      </trkpt>
      <trkpt lat="45.2782" lon="4.36485">
        <ele>950</ele>
        <time>2026-04-07T10:54:03.000Z</time>
      </trkpt>
      <trkpt lat="45.27844" lon="4.36433">
        <ele>949</ele>
        <time>2026-04-07T10:54:03.000Z</time>
      </trkpt>
      <trkpt lat="45.27863" lon="4.36406">
        <ele>950</ele>
        <time>2026-04-07T10:54:03.000Z</time>
      </trkpt>
      <trkpt lat="45.2788" lon="4.36359">
        <ele>950</ele>
        <time>2026-04-07T10:54:03.000Z</time>
      </trkpt>
      <trkpt lat="45.27892" lon="4.36321">
        <ele>951</ele>
        <time>2026-04-07T10:54:03.000Z</time>
      </trkpt>
      <trkpt lat="45.27901" lon="4.36259">
        <ele>953</ele>
        <time>2026-04-07T10:54:03.000Z</time>
      </trkpt>
      <trkpt lat="45.27908" lon="4.36236">
        <ele>953</ele>
        <time>2026-04-07T10:54:03.000Z</time>
      </trkpt>
      <trkpt lat="45.2791" lon="4.36194">
        <ele>953</ele>
        <time>2026-04-07T10:54:03.000Z</time>
      </trkpt>
      <trkpt lat="45.27909" lon="4.36164">
        <ele>952</ele>
        <time>2026-04-07T10:54:03.000Z</time>
      </trkpt>
      <trkpt lat="45.27912" lon="4.36139">
        <ele>953</ele>
        <time>2026-04-07T10:54:03.000Z</time>
      </trkpt>
      <trkpt lat="45.27933" lon="4.36047">
        <ele>954</ele>
        <time>2026-04-07T10:54:03.000Z</time>
      </trkpt>
      <trkpt lat="45.27941" lon="4.35986">
        <ele>954</ele>
        <time>2026-04-07T10:54:03.000Z</time>
      </trkpt>
      <trkpt lat="45.27937" lon="4.35935">
        <ele>952</ele>
        <time>2026-04-07T10:54:03.000Z</time>
      </trkpt>
      <trkpt lat="45.27924" lon="4.35839">
        <ele>948</ele>
        <time>2026-04-07T10:54:03.000Z</time>
      </trkpt>
      <trkpt lat="45.27923" lon="4.35748">
        <ele>945</ele>
        <time>2026-04-07T10:54:03.000Z</time>
      </trkpt>
      <trkpt lat="45.27915" lon="4.35643">
        <ele>938</ele>
        <time>2026-04-07T10:54:03.000Z</time>
      </trkpt>
      <trkpt lat="45.27916" lon="4.35629">
        <ele>938</ele>
        <time>2026-04-07T10:54:03.000Z</time>
      </trkpt>
      <trkpt lat="45.27899" lon="4.35485">
        <ele>925</ele>
        <time>2026-04-07T10:54:03.000Z</time>
      </trkpt>
      <trkpt lat="45.27905" lon="4.35466">
        <ele>922</ele>
        <time>2026-04-07T10:54:03.000Z</time>
      </trkpt>
      <trkpt lat="45.27922" lon="4.35324">
        <ele>910</ele>
        <time>2026-04-07T10:54:03.000Z</time>
      </trkpt>
      <trkpt lat="45.27932" lon="4.35278">
        <ele>907</ele>
        <time>2026-04-07T10:54:03.000Z</time>
      </trkpt>
      <trkpt lat="45.27943" lon="4.35244">
        <ele>904</ele>
        <time>2026-04-07T10:54:03.000Z</time>
      </trkpt>
      <trkpt lat="45.27989" lon="4.3518">
        <ele>897</ele>
        <time>2026-04-07T10:54:03.000Z</time>
      </trkpt>
      <trkpt lat="45.28064" lon="4.35049">
        <ele>884</ele>
        <time>2026-04-07T10:54:03.000Z</time>
      </trkpt>
      <trkpt lat="45.28069" lon="4.35044">
        <ele>884</ele>
        <time>2026-04-07T10:54:03.000Z</time>
      </trkpt>
      <trkpt lat="45.28067" lon="4.35062">
        <ele>885</ele>
        <time>2026-04-07T10:54:03.000Z</time>
      </trkpt>
      <trkpt lat="45.28067" lon="4.35073">
        <ele>885</ele>
        <time>2026-04-07T10:54:08.000Z</time>
      </trkpt>
      <trkpt lat="45.28073" lon="4.35097">
        <ele>886</ele>
        <time>2026-04-07T10:54:08.000Z</time>
      </trkpt>
      <trkpt lat="45.28087" lon="4.35134">
        <ele>886</ele>
        <time>2026-04-07T10:54:08.000Z</time>
      </trkpt>
      <trkpt lat="45.28129" lon="4.35197">
        <ele>891</ele>
        <time>2026-04-07T10:54:08.000Z</time>
      </trkpt>
      <trkpt lat="45.2816" lon="4.35199">
        <ele>890</ele>
        <time>2026-04-07T10:54:08.000Z</time>
      </trkpt>
      <trkpt lat="45.28216" lon="4.35212">
        <ele>887</ele>
        <time>2026-04-07T10:54:08.000Z</time>
      </trkpt>
      <trkpt lat="45.28255" lon="4.35238">
        <ele>886</ele>
        <time>2026-04-07T10:54:08.000Z</time>
      </trkpt>
      <trkpt lat="45.28278" lon="4.35263">
        <ele>886</ele>
        <time>2026-04-07T10:54:08.000Z</time>
      </trkpt>
      <trkpt lat="45.28304" lon="4.35281">
        <ele>887</ele>
        <time>2026-04-07T10:54:08.000Z</time>
      </trkpt>
      <trkpt lat="45.28358" lon="4.35301">
        <ele>884</ele>
        <time>2026-04-07T10:54:08.000Z</time>
      </trkpt>
      <trkpt lat="45.28384" lon="4.35315">
        <ele>885</ele>
        <time>2026-04-07T10:54:08.000Z</time>
      </trkpt>
      <trkpt lat="45.28447" lon="4.35333">
        <ele>882</ele>
        <time>2026-04-07T10:54:08.000Z</time>
      </trkpt>
      <trkpt lat="45.28503" lon="4.35363">
        <ele>869</ele>
        <time>2026-04-07T10:54:08.000Z</time>
      </trkpt>
      <trkpt lat="45.28522" lon="4.35357">
        <ele>863</ele>
        <time>2026-04-07T10:54:08.000Z</time>
      </trkpt>
      <trkpt lat="45.28534" lon="4.35342">
        <ele>859</ele>
        <time>2026-04-07T10:54:08.000Z</time>
      </trkpt>
      <trkpt lat="45.28545" lon="4.35316">
        <ele>854</ele>
        <time>2026-04-07T10:54:08.000Z</time>
      </trkpt>
      <trkpt lat="45.28545" lon="4.35279">
        <ele>850</ele>
        <time>2026-04-07T10:54:08.000Z</time>
      </trkpt>
      <trkpt lat="45.28543" lon="4.35257">
        <ele>848</ele>
        <time>2026-04-07T10:55:00.000Z</time>
      </trkpt>
      <trkpt lat="45.28542" lon="4.3525">
        <ele>848</ele>
        <time>2026-04-07T10:55:00.000Z</time>
      </trkpt>
      <trkpt lat="45.28553" lon="4.35277">
        <ele>847</ele>
        <time>2026-04-07T10:55:00.000Z</time>
      </trkpt>
      <trkpt lat="45.28578" lon="4.35314">
        <ele>848</ele>
        <time>2026-04-07T10:55:00.000Z</time>
      </trkpt>
      <trkpt lat="45.28625" lon="4.35429">
        <ele>847</ele>
        <time>2026-04-07T10:55:00.000Z</time>
      </trkpt>
      <trkpt lat="45.28666" lon="4.35482">
        <ele>854</ele>
        <time>2026-04-07T10:55:00.000Z</time>
      </trkpt>
      <trkpt lat="45.28678" lon="4.35502">
        <ele>853</ele>
        <time>2026-04-07T10:55:00.000Z</time>
      </trkpt>
      <trkpt lat="45.28693" lon="4.35541">
        <ele>853</ele>
        <time>2026-04-07T10:55:00.000Z</time>
      </trkpt>
      <trkpt lat="45.28738" lon="4.35566">
        <ele>846</ele>
        <time>2026-04-07T10:55:00.000Z</time>
      </trkpt>
      <trkpt lat="45.28759" lon="4.3557">
        <ele>844</ele>
        <time>2026-04-07T10:55:00.000Z</time>
      </trkpt>
      <trkpt lat="45.28783" lon="4.35559">
        <ele>844</ele>
        <time>2026-04-07T10:55:00.000Z</time>
      </trkpt>
      <trkpt lat="45.28806" lon="4.35542">
        <ele>847</ele>
        <time>2026-04-07T10:55:00.000Z</time>
      </trkpt>
      <trkpt lat="45.28827" lon="4.35536">
        <ele>849</ele>
        <time>2026-04-07T10:55:00.000Z</time>
      </trkpt>
      <trkpt lat="45.2884" lon="4.35501">
        <ele>853</ele>
        <time>2026-04-07T10:55:00.000Z</time>
      </trkpt>
      <trkpt lat="45.28857" lon="4.35502">
        <ele>857</ele>
        <time>2026-04-07T10:55:00.000Z</time>
      </trkpt>
      <trkpt lat="45.28885" lon="4.35486">
        <ele>862</ele>
        <time>2026-04-07T10:55:00.000Z</time>
      </trkpt>
      <trkpt lat="45.28913" lon="4.35479">
        <ele>863</ele>
        <time>2026-04-07T10:55:00.000Z</time>
      </trkpt>
      <trkpt lat="45.28944" lon="4.35477">
        <ele>862</ele>
        <time>2026-04-07T10:55:00.000Z</time>
      </trkpt>
      <trkpt lat="45.28943" lon="4.35468">
        <ele>862</ele>
        <time>2026-04-07T10:55:00.000Z</time>
      </trkpt>
      <trkpt lat="45.28979" lon="4.35448">
        <ele>862</ele>
        <time>2026-04-07T10:55:00.000Z</time>
      </trkpt>
      <trkpt lat="45.29012" lon="4.35444">
        <ele>860</ele>
        <time>2026-04-07T10:55:00.000Z</time>
      </trkpt>
      <trkpt lat="45.29132" lon="4.35514">
        <ele>848</ele>
        <time>2026-04-07T10:55:00.000Z</time>
      </trkpt>
      <trkpt lat="45.29203" lon="4.35524">
        <ele>842</ele>
        <time>2026-04-07T10:55:00.000Z</time>
      </trkpt>
      <trkpt lat="45.29207" lon="4.35525">
        <ele>842</ele>
        <time>2026-04-07T10:55:11.000Z</time>
      </trkpt>
      <trkpt lat="45.29221" lon="4.35529">
        <ele>842</ele>
        <time>2026-04-07T10:55:11.000Z</time>
      </trkpt>
      <trkpt lat="45.29306" lon="4.3556">
        <ele>841</ele>
        <time>2026-04-07T10:55:11.000Z</time>
      </trkpt>
      <trkpt lat="45.29315" lon="4.35571">
        <ele>840</ele>
        <time>2026-04-07T10:55:11.000Z</time>
      </trkpt>
      <trkpt lat="45.29319" lon="4.35589">
        <ele>840</ele>
        <time>2026-04-07T10:55:11.000Z</time>
      </trkpt>
      <trkpt lat="45.29319" lon="4.35629">
        <ele>839</ele>
        <time>2026-04-07T10:55:11.000Z</time>
      </trkpt>
      <trkpt lat="45.29313" lon="4.35728">
        <ele>831</ele>
        <time>2026-04-07T10:55:11.000Z</time>
      </trkpt>
      <trkpt lat="45.29318" lon="4.35739">
        <ele>833</ele>
        <time>2026-04-07T10:55:11.000Z</time>
      </trkpt>
      <trkpt lat="45.29349" lon="4.35744">
        <ele>832</ele>
        <time>2026-04-07T10:55:11.000Z</time>
      </trkpt>
      <trkpt lat="45.29385" lon="4.35761">
        <ele>831</ele>
        <time>2026-04-07T10:55:11.000Z</time>
      </trkpt>
      <trkpt lat="45.29482" lon="4.35843">
        <ele>826</ele>
        <time>2026-04-07T10:55:11.000Z</time>
      </trkpt>
      <trkpt lat="45.29502" lon="4.35865">
        <ele>826</ele>
        <time>2026-04-07T10:55:11.000Z</time>
      </trkpt>
      <trkpt lat="45.29523" lon="4.35895">
        <ele>826</ele>
        <time>2026-04-07T10:55:11.000Z</time>
      </trkpt>
      <trkpt lat="45.29536" lon="4.35941">
        <ele>824</ele>
        <time>2026-04-07T10:55:11.000Z</time>
      </trkpt>
      <trkpt lat="45.29543" lon="4.3599">
        <ele>826</ele>
        <time>2026-04-07T10:55:11.000Z</time>
      </trkpt>
      <trkpt lat="45.29552" lon="4.35999">
        <ele>827</ele>
        <time>2026-04-07T10:55:11.000Z</time>
      </trkpt>
      <trkpt lat="45.29589" lon="4.36022">
        <ele>826</ele>
        <time>2026-04-07T10:55:11.000Z</time>
      </trkpt>
      <trkpt lat="45.29605" lon="4.36049">
        <ele>826</ele>
        <time>2026-04-07T10:55:11.000Z</time>
      </trkpt>
      <trkpt lat="45.29601" lon="4.36089">
        <ele>826</ele>
        <time>2026-04-07T10:55:11.000Z</time>
      </trkpt>
      <trkpt lat="45.29609" lon="4.36119">
        <ele>827</ele>
        <time>2026-04-07T10:55:11.000Z</time>
      </trkpt>
      <trkpt lat="45.29607" lon="4.36111">
        <ele>825</ele>
        <time>2026-04-07T10:55:50.000Z</time>
      </trkpt>
      <trkpt lat="45.29622" lon="4.36103">
        <ele>822</ele>
        <time>2026-04-07T10:55:50.000Z</time>
      </trkpt>
      <trkpt lat="45.29645" lon="4.36098">
        <ele>820</ele>
        <time>2026-04-07T10:55:50.000Z</time>
      </trkpt>
      <trkpt lat="45.29668" lon="4.36099">
        <ele>817</ele>
        <time>2026-04-07T10:55:50.000Z</time>
      </trkpt>
      <trkpt lat="45.29698" lon="4.36104">
        <ele>813</ele>
        <time>2026-04-07T10:55:50.000Z</time>
      </trkpt>
      <trkpt lat="45.29723" lon="4.36115">
        <ele>810</ele>
        <time>2026-04-07T10:55:50.000Z</time>
      </trkpt>
      <trkpt lat="45.29766" lon="4.36141">
        <ele>804</ele>
        <time>2026-04-07T10:55:50.000Z</time>
      </trkpt>
      <trkpt lat="45.29788" lon="4.36175">
        <ele>804</ele>
        <time>2026-04-07T10:55:50.000Z</time>
      </trkpt>
      <trkpt lat="45.29823" lon="4.36207">
        <ele>804</ele>
        <time>2026-04-07T10:55:50.000Z</time>
      </trkpt>
      <trkpt lat="45.2984" lon="4.36213">
        <ele>804</ele>
        <time>2026-04-07T10:55:50.000Z</time>
      </trkpt>
      <trkpt lat="45.29863" lon="4.36199">
        <ele>805</ele>
        <time>2026-04-07T10:55:50.000Z</time>
      </trkpt>
      <trkpt lat="45.29877" lon="4.36206">
        <ele>805</ele>
        <time>2026-04-07T10:55:50.000Z</time>
      </trkpt>
      <trkpt lat="45.2989" lon="4.36217">
        <ele>805</ele>
        <time>2026-04-07T10:55:50.000Z</time>
      </trkpt>
      <trkpt lat="45.29919" lon="4.36255">
        <ele>806</ele>
        <time>2026-04-07T10:55:50.000Z</time>
      </trkpt>
      <trkpt lat="45.29931" lon="4.36266">
        <ele>806</ele>
        <time>2026-04-07T10:55:50.000Z</time>
      </trkpt>
      <trkpt lat="45.29946" lon="4.36266">
        <ele>806</ele>
        <time>2026-04-07T10:55:50.000Z</time>
      </trkpt>
      <trkpt lat="45.29959" lon="4.3626">
        <ele>806</ele>
        <time>2026-04-07T10:55:50.000Z</time>
      </trkpt>
      <trkpt lat="45.29981" lon="4.3625">
        <ele>806</ele>
        <time>2026-04-07T10:55:50.000Z</time>
      </trkpt>
      <trkpt lat="45.29992" lon="4.3624">
        <ele>807</ele>
        <time>2026-04-07T10:55:50.000Z</time>
      </trkpt>
      <trkpt lat="45.29999" lon="4.36232">
        <ele>808</ele>
        <time>2026-04-07T10:55:50.000Z</time>
      </trkpt>
      <trkpt lat="45.30001" lon="4.36225">
        <ele>809</ele>
        <time>2026-04-07T10:55:50.000Z</time>
      </trkpt>
      <trkpt lat="45.29999" lon="4.36197">
        <ele>809</ele>
        <time>2026-04-07T10:55:50.000Z</time>
      </trkpt>
      <trkpt lat="45.30001" lon="4.36147">
        <ele>811</ele>
        <time>2026-04-07T10:55:50.000Z</time>
      </trkpt>
      <trkpt lat="45.3" lon="4.36089">
        <ele>816</ele>
        <time>2026-04-07T10:55:50.000Z</time>
      </trkpt>
      <trkpt lat="45.30002" lon="4.3608">
        <ele>816</ele>
        <time>2026-04-07T10:55:50.000Z</time>
      </trkpt>
      <trkpt lat="45.30013" lon="4.36062">
        <ele>819</ele>
        <time>2026-04-07T10:55:50.000Z</time>
      </trkpt>
      <trkpt lat="45.30015" lon="4.36059">
        <ele>819</ele>
        <time>2026-04-07T10:55:58.000Z</time>
      </trkpt>
      <trkpt lat="45.30019" lon="4.36055">
        <ele>820</ele>
        <time>2026-04-07T10:55:58.000Z</time>
      </trkpt>
      <trkpt lat="45.30044" lon="4.36069">
        <ele>823</ele>
        <time>2026-04-07T10:55:58.000Z</time>
      </trkpt>
      <trkpt lat="45.30078" lon="4.36059">
        <ele>831</ele>
        <time>2026-04-07T10:55:58.000Z</time>
      </trkpt>
      <trkpt lat="45.30077" lon="4.36046">
        <ele>833</ele>
        <time>2026-04-07T10:55:58.000Z</time>
      </trkpt>
      <trkpt lat="45.30063" lon="4.36002">
        <ele>837</ele>
        <time>2026-04-07T10:55:58.000Z</time>
      </trkpt>
      <trkpt lat="45.30064" lon="4.35985">
        <ele>838</ele>
        <time>2026-04-07T10:55:58.000Z</time>
      </trkpt>
      <trkpt lat="45.30068" lon="4.35975">
        <ele>839</ele>
        <time>2026-04-07T10:55:58.000Z</time>
      </trkpt>
      <trkpt lat="45.30082" lon="4.3595">
        <ele>844</ele>
        <time>2026-04-07T10:55:58.000Z</time>
      </trkpt>
      <trkpt lat="45.30128" lon="4.35889">
        <ele>849</ele>
        <time>2026-04-07T10:55:58.000Z</time>
      </trkpt>
      <trkpt lat="45.30183" lon="4.35796">
        <ele>833</ele>
        <time>2026-04-07T10:55:58.000Z</time>
      </trkpt>
      <trkpt lat="45.30199" lon="4.35784">
        <ele>830</ele>
        <time>2026-04-07T10:55:58.000Z</time>
      </trkpt>
      <trkpt lat="45.30227" lon="4.35774">
        <ele>827</ele>
        <time>2026-04-07T10:55:58.000Z</time>
      </trkpt>
      <trkpt lat="45.30274" lon="4.35726">
        <ele>833</ele>
        <time>2026-04-07T10:55:58.000Z</time>
      </trkpt>
      <trkpt lat="45.30284" lon="4.35706">
        <ele>835</ele>
        <time>2026-04-07T10:55:58.000Z</time>
      </trkpt>
      <trkpt lat="45.30291" lon="4.3568">
        <ele>835</ele>
        <time>2026-04-07T10:55:58.000Z</time>
      </trkpt>
      <trkpt lat="45.30291" lon="4.35617">
        <ele>836</ele>
        <time>2026-04-07T10:55:58.000Z</time>
      </trkpt>
      <trkpt lat="45.30304" lon="4.35598">
        <ele>837</ele>
        <time>2026-04-07T10:55:58.000Z</time>
      </trkpt>
      <trkpt lat="45.30334" lon="4.35568">
        <ele>841</ele>
        <time>2026-04-07T10:55:58.000Z</time>
      </trkpt>
      <trkpt lat="45.30339" lon="4.35506">
        <ele>844</ele>
        <time>2026-04-07T10:55:58.000Z</time>
      </trkpt>
      <trkpt lat="45.30341" lon="4.35497">
        <ele>845</ele>
        <time>2026-04-07T10:56:15.000Z</time>
      </trkpt>
      <trkpt lat="45.30351" lon="4.35481">
        <ele>846</ele>
        <time>2026-04-07T10:56:15.000Z</time>
      </trkpt>
      <trkpt lat="45.30362" lon="4.35473">
        <ele>847</ele>
        <time>2026-04-07T10:56:15.000Z</time>
      </trkpt>
      <trkpt lat="45.30415" lon="4.35497">
        <ele>849</ele>
        <time>2026-04-07T10:56:15.000Z</time>
      </trkpt>
      <trkpt lat="45.30424" lon="4.35486">
        <ele>849</ele>
        <time>2026-04-07T10:56:15.000Z</time>
      </trkpt>
      <trkpt lat="45.30447" lon="4.3548">
        <ele>848</ele>
        <time>2026-04-07T10:56:15.000Z</time>
      </trkpt>
      <trkpt lat="45.30459" lon="4.35471">
        <ele>847</ele>
        <time>2026-04-07T10:56:15.000Z</time>
      </trkpt>
      <trkpt lat="45.30468" lon="4.35472">
        <ele>847</ele>
        <time>2026-04-07T10:56:15.000Z</time>
      </trkpt>
      <trkpt lat="45.30471" lon="4.35478">
        <ele>848</ele>
        <time>2026-04-07T10:56:15.000Z</time>
      </trkpt>
      <trkpt lat="45.30478" lon="4.35474">
        <ele>847</ele>
        <time>2026-04-07T10:56:15.000Z</time>
      </trkpt>
      <trkpt lat="45.30496" lon="4.35449">
        <ele>843</ele>
        <time>2026-04-07T10:56:15.000Z</time>
      </trkpt>
      <trkpt lat="45.30511" lon="4.35359">
        <ele>832</ele>
        <time>2026-04-07T10:56:15.000Z</time>
      </trkpt>
      <trkpt lat="45.30526" lon="4.35337">
        <ele>830</ele>
        <time>2026-04-07T10:56:15.000Z</time>
      </trkpt>
      <trkpt lat="45.30568" lon="4.35299">
        <ele>825</ele>
        <time>2026-04-07T10:56:15.000Z</time>
      </trkpt>
      <trkpt lat="45.30605" lon="4.35225">
        <ele>822</ele>
        <time>2026-04-07T10:56:15.000Z</time>
      </trkpt>
      <trkpt lat="45.30626" lon="4.35199">
        <ele>819</ele>
        <time>2026-04-07T10:56:15.000Z</time>
      </trkpt>
      <trkpt lat="45.30633" lon="4.35152">
        <ele>818</ele>
        <time>2026-04-07T10:56:15.000Z</time>
      </trkpt>
      <trkpt lat="45.30631" lon="4.35141">
        <ele>818</ele>
        <time>2026-04-07T10:56:15.000Z</time>
      </trkpt>
      <trkpt lat="45.30626" lon="4.35137">
        <ele>818</ele>
        <time>2026-04-07T10:56:15.000Z</time>
      </trkpt>
      <trkpt lat="45.30567" lon="4.35126">
        <ele>825</ele>
        <time>2026-04-07T10:56:15.000Z</time>
      </trkpt>
      <trkpt lat="45.30556" lon="4.35112">
        <ele>826</ele>
        <time>2026-04-07T10:56:15.000Z</time>
      </trkpt>
      <trkpt lat="45.30511" lon="4.35001">
        <ele>829</ele>
        <time>2026-04-07T10:56:15.000Z</time>
      </trkpt>
      <trkpt lat="45.30506" lon="4.34938">
        <ele>828</ele>
        <time>2026-04-07T10:56:15.000Z</time>
      </trkpt>
      <trkpt lat="45.30503" lon="4.34922">
        <ele>827</ele>
        <time>2026-04-07T10:56:15.000Z</time>
      </trkpt>
      <trkpt lat="45.30476" lon="4.34871">
        <ele>832</ele>
        <time>2026-04-07T10:56:15.000Z</time>
      </trkpt>
      <trkpt lat="45.30463" lon="4.3483">
        <ele>836</ele>
        <time>2026-04-07T10:56:15.000Z</time>
      </trkpt>
      <trkpt lat="45.30439" lon="4.34784">
        <ele>841</ele>
        <time>2026-04-07T10:56:15.000Z</time>
      </trkpt>
      <trkpt lat="45.3044" lon="4.34764">
        <ele>842</ele>
        <time>2026-04-07T10:56:15.000Z</time>
      </trkpt>
      <trkpt lat="45.30426" lon="4.34738">
        <ele>843</ele>
        <time>2026-04-07T10:56:15.000Z</time>
      </trkpt>
      <trkpt lat="45.30418" lon="4.34723">
        <ele>843</ele>
        <time>2026-04-07T10:56:23.000Z</time>
      </trkpt>
      <trkpt lat="45.30385" lon="4.34644">
        <ele>835</ele>
        <time>2026-04-07T10:56:23.000Z</time>
      </trkpt>
      <trkpt lat="45.30378" lon="4.34528">
        <ele>829</ele>
        <time>2026-04-07T10:56:23.000Z</time>
      </trkpt>
      <trkpt lat="45.3037" lon="4.34514">
        <ele>828</ele>
        <time>2026-04-07T10:56:23.000Z</time>
      </trkpt>
      <trkpt lat="45.30359" lon="4.34473">
        <ele>826</ele>
        <time>2026-04-07T10:56:23.000Z</time>
      </trkpt>
      <trkpt lat="45.30334" lon="4.3443">
        <ele>823</ele>
        <time>2026-04-07T10:56:23.000Z</time>
      </trkpt>
      <trkpt lat="45.30306" lon="4.34321">
        <ele>812</ele>
        <time>2026-04-07T10:56:23.000Z</time>
      </trkpt>
      <trkpt lat="45.30315" lon="4.34197">
        <ele>814</ele>
        <time>2026-04-07T10:56:23.000Z</time>
      </trkpt>
      <trkpt lat="45.30318" lon="4.3409">
        <ele>832</ele>
        <time>2026-04-07T10:56:23.000Z</time>
      </trkpt>
      <trkpt lat="45.30314" lon="4.34059">
        <ele>836</ele>
        <time>2026-04-07T10:56:23.000Z</time>
      </trkpt>
      <trkpt lat="45.30296" lon="4.33999">
        <ele>842</ele>
        <time>2026-04-07T10:56:23.000Z</time>
      </trkpt>
      <trkpt lat="45.30292" lon="4.33984">
        <ele>844</ele>
        <time>2026-04-07T10:56:33.000Z</time>
      </trkpt>
      <trkpt lat="45.30225" lon="4.33925">
        <ele>849</ele>
        <time>2026-04-07T10:56:33.000Z</time>
      </trkpt>
      <trkpt lat="45.30212" lon="4.33909">
        <ele>847</ele>
        <time>2026-04-07T10:56:33.000Z</time>
      </trkpt>
      <trkpt lat="45.3019" lon="4.33869">
        <ele>843</ele>
        <time>2026-04-07T10:56:33.000Z</time>
      </trkpt>
      <trkpt lat="45.30249" lon="4.33808">
        <ele>846</ele>
        <time>2026-04-07T10:56:33.000Z</time>
      </trkpt>
      <trkpt lat="45.30284" lon="4.33762">
        <ele>848</ele>
        <time>2026-04-07T10:56:33.000Z</time>
      </trkpt>
      <trkpt lat="45.30292" lon="4.33758">
        <ele>848</ele>
        <time>2026-04-07T10:56:46.000Z</time>
      </trkpt>
      <trkpt lat="45.30292" lon="4.33743">
        <ele>848</ele>
        <time>2026-04-07T10:56:46.000Z</time>
      </trkpt>
      <trkpt lat="45.30294" lon="4.33711">
        <ele>848</ele>
        <time>2026-04-07T10:56:46.000Z</time>
      </trkpt>
      <trkpt lat="45.30275" lon="4.33635">
        <ele>852</ele>
        <time>2026-04-07T10:56:46.000Z</time>
      </trkpt>
      <trkpt lat="45.30277" lon="4.33621">
        <ele>854</ele>
        <time>2026-04-07T10:56:46.000Z</time>
      </trkpt>
      <trkpt lat="45.30286" lon="4.33596">
        <ele>856</ele>
        <time>2026-04-07T10:56:46.000Z</time>
      </trkpt>
      <trkpt lat="45.30286" lon="4.33574">
        <ele>859</ele>
        <time>2026-04-07T10:56:46.000Z</time>
      </trkpt>
      <trkpt lat="45.30261" lon="4.33525">
        <ele>864</ele>
        <time>2026-04-07T10:56:46.000Z</time>
      </trkpt>
      <trkpt lat="45.30252" lon="4.33499">
        <ele>866</ele>
        <time>2026-04-07T10:56:46.000Z</time>
      </trkpt>
      <trkpt lat="45.30211" lon="4.33326">
        <ele>874</ele>
        <time>2026-04-07T10:56:46.000Z</time>
      </trkpt>
      <trkpt lat="45.30204" lon="4.33309">
        <ele>873</ele>
        <time>2026-04-07T10:56:46.000Z</time>
      </trkpt>
      <trkpt lat="45.30164" lon="4.33299">
        <ele>872</ele>
        <time>2026-04-07T10:56:46.000Z</time>
      </trkpt>
      <trkpt lat="45.30082" lon="4.33303">
        <ele>872</ele>
        <time>2026-04-07T10:56:46.000Z</time>
      </trkpt>
      <trkpt lat="45.30064" lon="4.333">
        <ele>871</ele>
        <time>2026-04-07T10:56:46.000Z</time>
      </trkpt>
      <trkpt lat="45.30027" lon="4.33311">
        <ele>872</ele>
        <time>2026-04-07T10:56:46.000Z</time>
      </trkpt>
      <trkpt lat="45.29986" lon="4.33331">
        <ele>873</ele>
        <time>2026-04-07T10:56:46.000Z</time>
      </trkpt>
      <trkpt lat="45.29944" lon="4.33344">
        <ele>877</ele>
        <time>2026-04-07T10:56:46.000Z</time>
      </trkpt>
      <trkpt lat="45.29867" lon="4.33327">
        <ele>872</ele>
        <time>2026-04-07T10:56:46.000Z</time>
      </trkpt>
      <trkpt lat="45.29818" lon="4.33321">
        <ele>870</ele>
        <time>2026-04-07T10:56:46.000Z</time>
      </trkpt>
      <trkpt lat="45.29802" lon="4.3331">
        <ele>869</ele>
        <time>2026-04-07T10:56:46.000Z</time>
      </trkpt>
      <trkpt lat="45.29778" lon="4.33271">
        <ele>866</ele>
        <time>2026-04-07T10:56:46.000Z</time>
      </trkpt>
      <trkpt lat="45.2976" lon="4.33252">
        <ele>864</ele>
        <time>2026-04-07T10:56:46.000Z</time>
      </trkpt>
      <trkpt lat="45.29724" lon="4.33254">
        <ele>862</ele>
        <time>2026-04-07T10:56:46.000Z</time>
      </trkpt>
      <trkpt lat="45.29655" lon="4.33236">
        <ele>855</ele>
        <time>2026-04-07T10:56:46.000Z</time>
      </trkpt>
      <trkpt lat="45.29616" lon="4.33236">
        <ele>851</ele>
        <time>2026-04-07T10:56:46.000Z</time>
      </trkpt>
      <trkpt lat="45.29595" lon="4.33232">
        <ele>849</ele>
        <time>2026-04-07T10:56:46.000Z</time>
      </trkpt>
      <trkpt lat="45.29571" lon="4.33219">
        <ele>848</ele>
        <time>2026-04-07T10:56:46.000Z</time>
      </trkpt>
      <trkpt lat="45.29562" lon="4.33184">
        <ele>846</ele>
        <time>2026-04-07T10:56:46.000Z</time>
      </trkpt>
      <trkpt lat="45.29556" lon="4.33175">
        <ele>846</ele>
        <time>2026-04-07T10:56:46.000Z</time>
      </trkpt>
      <trkpt lat="45.29545" lon="4.3317">
        <ele>847</ele>
        <time>2026-04-07T10:56:46.000Z</time>
      </trkpt>
      <trkpt lat="45.29477" lon="4.33153">
        <ele>847</ele>
        <time>2026-04-07T10:56:46.000Z</time>
      </trkpt>
      <trkpt lat="45.2939" lon="4.33143">
        <ele>846</ele>
        <time>2026-04-07T10:56:46.000Z</time>
      </trkpt>
      <trkpt lat="45.2936" lon="4.33115">
        <ele>845</ele>
        <time>2026-04-07T10:56:46.000Z</time>
      </trkpt>
      <trkpt lat="45.29341" lon="4.33103">
        <ele>844</ele>
        <time>2026-04-07T10:56:46.000Z</time>
      </trkpt>
      <trkpt lat="45.29318" lon="4.33095">
        <ele>842</ele>
        <time>2026-04-07T10:56:46.000Z</time>
      </trkpt>
      <trkpt lat="45.29279" lon="4.331">
        <ele>839</ele>
        <time>2026-04-07T10:56:46.000Z</time>
      </trkpt>
      <trkpt lat="45.29243" lon="4.33114">
        <ele>836</ele>
        <time>2026-04-07T10:56:46.000Z</time>
      </trkpt>
      <trkpt lat="45.29134" lon="4.33176">
        <ele>822</ele>
        <time>2026-04-07T10:56:46.000Z</time>
      </trkpt>
      <trkpt lat="45.29097" lon="4.33188">
        <ele>822</ele>
        <time>2026-04-07T10:56:46.000Z</time>
      </trkpt>
      <trkpt lat="45.29056" lon="4.33195">
        <ele>820</ele>
        <time>2026-04-07T10:56:46.000Z</time>
      </trkpt>
      <trkpt lat="45.29032" lon="4.33194">
        <ele>819</ele>
        <time>2026-04-07T10:56:46.000Z</time>
      </trkpt>
      <trkpt lat="45.28976" lon="4.33168">
        <ele>813</ele>
        <time>2026-04-07T10:56:46.000Z</time>
      </trkpt>
      <trkpt lat="45.28976" lon="4.33168">
        <ele>813</ele>
        <time>2026-04-07T10:58:00.000Z</time>
      </trkpt>
      <trkpt lat="45.28934" lon="4.33153">
        <ele>809</ele>
        <time>2026-04-07T10:59:13.000Z</time>
      </trkpt>
      <trkpt lat="45.2893" lon="4.33155">
        <ele>808</ele>
        <time>2026-04-07T10:59:13.000Z</time>
      </trkpt>
      <trkpt lat="45.28927" lon="4.33172">
        <ele>809</ele>
        <time>2026-04-07T10:59:13.000Z</time>
      </trkpt>
      <trkpt lat="45.28925" lon="4.33199">
        <ele>808</ele>
        <time>2026-04-07T10:59:13.000Z</time>
      </trkpt>
      <trkpt lat="45.28928" lon="4.33214">
        <ele>808</ele>
        <time>2026-04-07T10:59:13.000Z</time>
      </trkpt>
      <trkpt lat="45.2891" lon="4.33198">
        <ele>805</ele>
        <time>2026-04-07T10:59:13.000Z</time>
      </trkpt>
      <trkpt lat="45.28875" lon="4.33143">
        <ele>794</ele>
        <time>2026-04-07T10:59:13.000Z</time>
      </trkpt>
      <trkpt lat="45.28866" lon="4.33134">
        <ele>791</ele>
        <time>2026-04-07T10:59:13.000Z</time>
      </trkpt>
      <trkpt lat="45.28853" lon="4.33106">
        <ele>789</ele>
        <time>2026-04-07T10:59:13.000Z</time>
      </trkpt>
      <trkpt lat="45.28843" lon="4.33103">
        <ele>787</ele>
        <time>2026-04-07T10:59:13.000Z</time>
      </trkpt>
      <trkpt lat="45.2882" lon="4.33087">
        <ele>784</ele>
        <time>2026-04-07T10:59:13.000Z</time>
      </trkpt>
      <trkpt lat="45.28807" lon="4.33057">
        <ele>790</ele>
        <time>2026-04-07T10:59:13.000Z</time>
      </trkpt>
      <trkpt lat="45.28806" lon="4.33035">
        <ele>790</ele>
        <time>2026-04-07T10:59:13.000Z</time>
      </trkpt>
      <trkpt lat="45.2881" lon="4.33026">
        <ele>790</ele>
        <time>2026-04-07T10:59:13.000Z</time>
      </trkpt>
      <trkpt lat="45.28823" lon="4.33015">
        <ele>788</ele>
        <time>2026-04-07T10:59:13.000Z</time>
      </trkpt>
      <trkpt lat="45.2885" lon="4.33002">
        <ele>788</ele>
        <time>2026-04-07T10:59:13.000Z</time>
      </trkpt>
      <trkpt lat="45.28864" lon="4.3299">
        <ele>789</ele>
        <time>2026-04-07T10:59:13.000Z</time>
      </trkpt>
      <trkpt lat="45.28884" lon="4.32958">
        <ele>788</ele>
        <time>2026-04-07T10:59:13.000Z</time>
      </trkpt>
      <trkpt lat="45.28891" lon="4.32941">
        <ele>788</ele>
        <time>2026-04-07T10:59:13.000Z</time>
      </trkpt>
      <trkpt lat="45.28889" lon="4.32925">
        <ele>788</ele>
        <time>2026-04-07T10:59:13.000Z</time>
      </trkpt>
      <trkpt lat="45.28857" lon="4.32903">
        <ele>788</ele>
        <time>2026-04-07T10:59:13.000Z</time>
      </trkpt>
      <trkpt lat="45.28853" lon="4.32895">
        <ele>790</ele>
        <time>2026-04-07T10:59:16.000Z</time>
      </trkpt>
      <trkpt lat="45.2882" lon="4.32861">
        <ele>794</ele>
        <time>2026-04-07T10:59:16.000Z</time>
      </trkpt>
      <trkpt lat="45.28808" lon="4.32842">
        <ele>795</ele>
        <time>2026-04-07T10:59:16.000Z</time>
      </trkpt>
      <trkpt lat="45.28808" lon="4.32801">
        <ele>796</ele>
        <time>2026-04-07T10:59:16.000Z</time>
      </trkpt>
      <trkpt lat="45.28817" lon="4.32762">
        <ele>799</ele>
        <time>2026-04-07T10:59:16.000Z</time>
      </trkpt>
      <trkpt lat="45.28831" lon="4.32738">
        <ele>802</ele>
        <time>2026-04-07T10:59:16.000Z</time>
      </trkpt>
      <trkpt lat="45.28882" lon="4.32672">
        <ele>807</ele>
        <time>2026-04-07T10:59:16.000Z</time>
      </trkpt>
      <trkpt lat="45.28889" lon="4.32668">
        <ele>808</ele>
        <time>2026-04-07T10:59:16.000Z</time>
      </trkpt>
      <trkpt lat="45.28906" lon="4.32711">
        <ele>812</ele>
        <time>2026-04-07T10:59:16.000Z</time>
      </trkpt>
      <trkpt lat="45.28922" lon="4.32731">
        <ele>814</ele>
        <time>2026-04-07T10:59:16.000Z</time>
      </trkpt>
      <trkpt lat="45.28943" lon="4.32739">
        <ele>817</ele>
        <time>2026-04-07T10:59:16.000Z</time>
      </trkpt>
      <trkpt lat="45.28966" lon="4.3274">
        <ele>819</ele>
        <time>2026-04-07T10:59:16.000Z</time>
      </trkpt>
      <trkpt lat="45.28974" lon="4.32736">
        <ele>820</ele>
        <time>2026-04-07T10:59:16.000Z</time>
      </trkpt>
      <trkpt lat="45.2899" lon="4.3267">
        <ele>827</ele>
        <time>2026-04-07T10:59:16.000Z</time>
      </trkpt>
      <trkpt lat="45.28997" lon="4.32609">
        <ele>830</ele>
        <time>2026-04-07T10:59:16.000Z</time>
      </trkpt>
      <trkpt lat="45.2901" lon="4.32588">
        <ele>831</ele>
        <time>2026-04-07T10:59:16.000Z</time>
      </trkpt>
      <trkpt lat="45.29013" lon="4.32575">
        <ele>832</ele>
        <time>2026-04-07T10:59:16.000Z</time>
      </trkpt>
      <trkpt lat="45.2901" lon="4.32549">
        <ele>832</ele>
        <time>2026-04-07T10:59:16.000Z</time>
      </trkpt>
      <trkpt lat="45.28993" lon="4.32515">
        <ele>832</ele>
        <time>2026-04-07T10:59:16.000Z</time>
      </trkpt>
      <trkpt lat="45.28993" lon="4.32509">
        <ele>832</ele>
        <time>2026-04-07T10:59:16.000Z</time>
      </trkpt>
      <trkpt lat="45.29005" lon="4.32486">
        <ele>834</ele>
        <time>2026-04-07T10:59:16.000Z</time>
      </trkpt>
      <trkpt lat="45.29011" lon="4.32471">
        <ele>834</ele>
        <time>2026-04-07T10:59:39.000Z</time>
      </trkpt>
      <trkpt lat="45.28992" lon="4.32473">
        <ele>834</ele>
        <time>2026-04-07T10:59:39.000Z</time>
      </trkpt>
      <trkpt lat="45.28928" lon="4.32477">
        <ele>834</ele>
        <time>2026-04-07T10:59:39.000Z</time>
      </trkpt>
      <trkpt lat="45.28853" lon="4.32489">
        <ele>834</ele>
        <time>2026-04-07T10:59:39.000Z</time>
      </trkpt>
      <trkpt lat="45.28795" lon="4.32485">
        <ele>834</ele>
        <time>2026-04-07T10:59:39.000Z</time>
      </trkpt>
      <trkpt lat="45.28743" lon="4.32469">
        <ele>834</ele>
        <time>2026-04-07T10:59:39.000Z</time>
      </trkpt>
      <trkpt lat="45.28687" lon="4.32416">
        <ele>828</ele>
        <time>2026-04-07T10:59:39.000Z</time>
      </trkpt>
      <trkpt lat="45.28666" lon="4.32404">
        <ele>826</ele>
        <time>2026-04-07T10:59:39.000Z</time>
      </trkpt>
      <trkpt lat="45.28644" lon="4.324">
        <ele>825</ele>
        <time>2026-04-07T10:59:39.000Z</time>
      </trkpt>
      <trkpt lat="45.28611" lon="4.32412">
        <ele>824</ele>
        <time>2026-04-07T10:59:39.000Z</time>
      </trkpt>
      <trkpt lat="45.286" lon="4.3244">
        <ele>823</ele>
        <time>2026-04-07T10:59:39.000Z</time>
      </trkpt>
      <trkpt lat="45.28596" lon="4.32458">
        <ele>822</ele>
        <time>2026-04-07T10:59:39.000Z</time>
      </trkpt>
      <trkpt lat="45.28596" lon="4.32473">
        <ele>821</ele>
        <time>2026-04-07T10:59:39.000Z</time>
      </trkpt>
      <trkpt lat="45.28604" lon="4.325">
        <ele>820</ele>
        <time>2026-04-07T10:59:39.000Z</time>
      </trkpt>
      <trkpt lat="45.28636" lon="4.32548">
        <ele>816</ele>
        <time>2026-04-07T10:59:39.000Z</time>
      </trkpt>
      <trkpt lat="45.28634" lon="4.32575">
        <ele>815</ele>
        <time>2026-04-07T10:59:39.000Z</time>
      </trkpt>
      <trkpt lat="45.2862" lon="4.3261">
        <ele>814</ele>
        <time>2026-04-07T10:59:39.000Z</time>
      </trkpt>
      <trkpt lat="45.2861" lon="4.32623">
        <ele>813</ele>
        <time>2026-04-07T10:59:39.000Z</time>
      </trkpt>
      <trkpt lat="45.28551" lon="4.32675">
        <ele>807</ele>
        <time>2026-04-07T10:59:39.000Z</time>
      </trkpt>
      <trkpt lat="45.28521" lon="4.3269">
        <ele>806</ele>
        <time>2026-04-07T10:59:39.000Z</time>
      </trkpt>
      <trkpt lat="45.28505" lon="4.32693">
        <ele>805</ele>
        <time>2026-04-07T10:59:39.000Z</time>
      </trkpt>
      <trkpt lat="45.28492" lon="4.32689">
        <ele>804</ele>
        <time>2026-04-07T10:59:39.000Z</time>
      </trkpt>
      <trkpt lat="45.28401" lon="4.32657">
        <ele>797</ele>
        <time>2026-04-07T10:59:39.000Z</time>
      </trkpt>
      <trkpt lat="45.2837" lon="4.32653">
        <ele>796</ele>
        <time>2026-04-07T10:59:39.000Z</time>
      </trkpt>
      <trkpt lat="45.28307" lon="4.32675">
        <ele>791</ele>
        <time>2026-04-07T10:59:39.000Z</time>
      </trkpt>
      <trkpt lat="45.28279" lon="4.32675">
        <ele>789</ele>
        <time>2026-04-07T10:59:39.000Z</time>
      </trkpt>
      <trkpt lat="45.28246" lon="4.3267">
        <ele>788</ele>
        <time>2026-04-07T10:59:39.000Z</time>
      </trkpt>
      <trkpt lat="45.28228" lon="4.32663">
        <ele>787</ele>
        <time>2026-04-07T10:59:39.000Z</time>
      </trkpt>
      <trkpt lat="45.28177" lon="4.32633">
        <ele>783</ele>
        <time>2026-04-07T10:59:39.000Z</time>
      </trkpt>
      <trkpt lat="45.28155" lon="4.32611">
        <ele>782</ele>
        <time>2026-04-07T10:59:39.000Z</time>
      </trkpt>
      <trkpt lat="45.28119" lon="4.32564">
        <ele>778</ele>
        <time>2026-04-07T10:59:39.000Z</time>
      </trkpt>
      <trkpt lat="45.28108" lon="4.32557">
        <ele>776</ele>
        <time>2026-04-07T10:59:39.000Z</time>
      </trkpt>
      <trkpt lat="45.28077" lon="4.32549">
        <ele>775</ele>
        <time>2026-04-07T10:59:39.000Z</time>
      </trkpt>
      <trkpt lat="45.27998" lon="4.32547">
        <ele>774</ele>
        <time>2026-04-07T10:59:39.000Z</time>
      </trkpt>
      <trkpt lat="45.2798" lon="4.32548">
        <ele>774</ele>
        <time>2026-04-07T10:59:39.000Z</time>
      </trkpt>
      <trkpt lat="45.27972" lon="4.32557">
        <ele>774</ele>
        <time>2026-04-07T10:59:39.000Z</time>
      </trkpt>
      <trkpt lat="45.27968" lon="4.3256">
        <ele>772</ele>
        <time>2026-04-07T10:59:47.000Z</time>
      </trkpt>
      <trkpt lat="45.27956" lon="4.32572">
        <ele>774</ele>
        <time>2026-04-07T10:59:47.000Z</time>
      </trkpt>
      <trkpt lat="45.27944" lon="4.32636">
        <ele>777</ele>
        <time>2026-04-07T10:59:47.000Z</time>
      </trkpt>
      <trkpt lat="45.27928" lon="4.32607">
        <ele>777</ele>
        <time>2026-04-07T10:59:47.000Z</time>
      </trkpt>
      <trkpt lat="45.27906" lon="4.32545">
        <ele>778</ele>
        <time>2026-04-07T10:59:47.000Z</time>
      </trkpt>
      <trkpt lat="45.27905" lon="4.32509">
        <ele>777</ele>
        <time>2026-04-07T10:59:47.000Z</time>
      </trkpt>
      <trkpt lat="45.27911" lon="4.32457">
        <ele>775</ele>
        <time>2026-04-07T10:59:47.000Z</time>
      </trkpt>
      <trkpt lat="45.27903" lon="4.32375">
        <ele>773</ele>
        <time>2026-04-07T10:59:47.000Z</time>
      </trkpt>
      <trkpt lat="45.27908" lon="4.32326">
        <ele>775</ele>
        <time>2026-04-07T10:59:47.000Z</time>
      </trkpt>
      <trkpt lat="45.27889" lon="4.32257">
        <ele>778</ele>
        <time>2026-04-07T10:59:47.000Z</time>
      </trkpt>
      <trkpt lat="45.27885" lon="4.32244">
        <ele>780</ele>
        <time>2026-04-07T10:59:55.000Z</time>
      </trkpt>
      <trkpt lat="45.27868" lon="4.32202">
        <ele>783</ele>
        <time>2026-04-07T10:59:55.000Z</time>
      </trkpt>
      <trkpt lat="45.2785" lon="4.32175">
        <ele>785</ele>
        <time>2026-04-07T10:59:55.000Z</time>
      </trkpt>
      <trkpt lat="45.2781" lon="4.32134">
        <ele>791</ele>
        <time>2026-04-07T10:59:55.000Z</time>
      </trkpt>
      <trkpt lat="45.27757" lon="4.3209">
        <ele>796</ele>
        <time>2026-04-07T10:59:55.000Z</time>
      </trkpt>
      <trkpt lat="45.27734" lon="4.32048">
        <ele>800</ele>
        <time>2026-04-07T10:59:55.000Z</time>
      </trkpt>
      <trkpt lat="45.27729" lon="4.32023">
        <ele>801</ele>
        <time>2026-04-07T10:59:55.000Z</time>
      </trkpt>
      <trkpt lat="45.27719" lon="4.31941">
        <ele>808</ele>
        <time>2026-04-07T10:59:55.000Z</time>
      </trkpt>
      <trkpt lat="45.27719" lon="4.31915">
        <ele>807</ele>
        <time>2026-04-07T10:59:55.000Z</time>
      </trkpt>
      <trkpt lat="45.27732" lon="4.31852">
        <ele>804</ele>
        <time>2026-04-07T10:59:55.000Z</time>
      </trkpt>
      <trkpt lat="45.277" lon="4.31734">
        <ele>801</ele>
        <time>2026-04-07T10:59:55.000Z</time>
      </trkpt>
      <trkpt lat="45.27703" lon="4.31718">
        <ele>800</ele>
        <time>2026-04-07T10:59:55.000Z</time>
      </trkpt>
      <trkpt lat="45.27724" lon="4.31678">
        <ele>800</ele>
        <time>2026-04-07T10:59:55.000Z</time>
      </trkpt>
      <trkpt lat="45.27726" lon="4.31675">
        <ele>800</ele>
        <time>2026-04-07T11:00:11.000Z</time>
      </trkpt>
      <trkpt lat="45.27727" lon="4.31657">
        <ele>801</ele>
        <time>2026-04-07T11:00:11.000Z</time>
      </trkpt>
      <trkpt lat="45.27725" lon="4.31655">
        <ele>802</ele>
        <time>2026-04-07T11:00:11.000Z</time>
      </trkpt>
      <trkpt lat="45.27708" lon="4.31612">
        <ele>807</ele>
        <time>2026-04-07T11:00:11.000Z</time>
      </trkpt>
      <trkpt lat="45.27681" lon="4.31583">
        <ele>810</ele>
        <time>2026-04-07T11:00:11.000Z</time>
      </trkpt>
      <trkpt lat="45.27675" lon="4.31584">
        <ele>809</ele>
        <time>2026-04-07T11:00:11.000Z</time>
      </trkpt>
      <trkpt lat="45.27662" lon="4.31529">
        <ele>806</ele>
        <time>2026-04-07T11:00:11.000Z</time>
      </trkpt>
      <trkpt lat="45.27655" lon="4.3151">
        <ele>805</ele>
        <time>2026-04-07T11:00:11.000Z</time>
      </trkpt>
      <trkpt lat="45.27601" lon="4.31439">
        <ele>806</ele>
        <time>2026-04-07T11:00:11.000Z</time>
      </trkpt>
      <trkpt lat="45.27588" lon="4.31394">
        <ele>807</ele>
        <time>2026-04-07T11:00:11.000Z</time>
      </trkpt>
      <trkpt lat="45.2757" lon="4.3137">
        <ele>808</ele>
        <time>2026-04-07T11:00:11.000Z</time>
      </trkpt>
      <trkpt lat="45.27539" lon="4.31356">
        <ele>809</ele>
        <time>2026-04-07T11:00:11.000Z</time>
      </trkpt>
      <trkpt lat="45.27521" lon="4.31352">
        <ele>810</ele>
        <time>2026-04-07T11:00:11.000Z</time>
      </trkpt>
      <trkpt lat="45.27483" lon="4.31355">
        <ele>810</ele>
        <time>2026-04-07T11:00:11.000Z</time>
      </trkpt>
      <trkpt lat="45.27461" lon="4.31362">
        <ele>810</ele>
        <time>2026-04-07T11:00:11.000Z</time>
      </trkpt>
      <trkpt lat="45.274" lon="4.31427">
        <ele>806</ele>
        <time>2026-04-07T11:00:11.000Z</time>
      </trkpt>
      <trkpt lat="45.27392" lon="4.31429">
        <ele>806</ele>
        <time>2026-04-07T11:00:11.000Z</time>
      </trkpt>
      <trkpt lat="45.27384" lon="4.31418">
        <ele>807</ele>
        <time>2026-04-07T11:00:11.000Z</time>
      </trkpt>
      <trkpt lat="45.27386" lon="4.314">
        <ele>807</ele>
        <time>2026-04-07T11:00:11.000Z</time>
      </trkpt>
      <trkpt lat="45.27383" lon="4.31392">
        <ele>809</ele>
        <time>2026-04-07T11:00:11.000Z</time>
      </trkpt>
      <trkpt lat="45.27365" lon="4.31363">
        <ele>816</ele>
        <time>2026-04-07T11:00:11.000Z</time>
      </trkpt>
      <trkpt lat="45.27308" lon="4.31298">
        <ele>827</ele>
        <time>2026-04-07T11:00:11.000Z</time>
      </trkpt>
      <trkpt lat="45.27227" lon="4.31158">
        <ele>838</ele>
        <time>2026-04-07T11:00:11.000Z</time>
      </trkpt>
      <trkpt lat="45.2722" lon="4.31163">
        <ele>839</ele>
        <time>2026-04-07T11:00:11.000Z</time>
      </trkpt>
      <trkpt lat="45.27214" lon="4.31169">
        <ele>840</ele>
        <time>2026-04-07T11:00:42.000Z</time>
      </trkpt>
      <trkpt lat="45.27196" lon="4.31184">
        <ele>842</ele>
        <time>2026-04-07T11:00:42.000Z</time>
      </trkpt>
      <trkpt lat="45.27159" lon="4.31242">
        <ele>845</ele>
        <time>2026-04-07T11:00:42.000Z</time>
      </trkpt>
      <trkpt lat="45.27148" lon="4.31252">
        <ele>846</ele>
        <time>2026-04-07T11:00:42.000Z</time>
      </trkpt>
      <trkpt lat="45.27138" lon="4.31257">
        <ele>848</ele>
        <time>2026-04-07T11:00:42.000Z</time>
      </trkpt>
      <trkpt lat="45.27114" lon="4.31259">
        <ele>848</ele>
        <time>2026-04-07T11:00:42.000Z</time>
      </trkpt>
      <trkpt lat="45.27052" lon="4.31237">
        <ele>850</ele>
        <time>2026-04-07T11:00:42.000Z</time>
      </trkpt>
      <trkpt lat="45.26915" lon="4.31135">
        <ele>856</ele>
        <time>2026-04-07T11:00:42.000Z</time>
      </trkpt>
      <trkpt lat="45.26845" lon="4.31093">
        <ele>850</ele>
        <time>2026-04-07T11:00:42.000Z</time>
      </trkpt>
      <trkpt lat="45.26804" lon="4.31056">
        <ele>847</ele>
        <time>2026-04-07T11:00:42.000Z</time>
      </trkpt>
    </trkseg>
  </trk>
</gpx>